GFSGBSN_850_spd_000.txt.gz
Wind_Speed
10 11 11 12 12 12 10 9 8 8 8 8 9 10 12 15 17 17 17 15 13 12 12 13 11 5 3 8 8 5 9 9 7 6 7 4 6 9 7 3 2 5 3 2 2 3 4
10 11 12 13 14 14 12 10 9 9 9 10 11 13 15 16 17 17 15 14 14 14 13 12 8 2 5 6 4 5 6 6 6 7 7 9 8 6 5 6 8 4 4 2 2 4 7
10 11 12 14 15 15 13 10 9 9 9 12 13 13 13 14 16 14 13 13 13 13 11 8 4 5 6 5 4 4 4 5 5 7 9 8 5 7 5 2 3 4 9 13 10 3 9
9 10 12 14 15 15 14 12 9 9 9 11 13 14 13 13 12 12 14 13 12 11 10 9 4 1 4 2 3 6 5 4 5 5 6 6 2 1 4 2 6 12 7 7 5 3 2
9 10 11 12 14 15 16 15 11 8 10 12 13 14 13 11 11 11 12 11 8 7 5 5 1 5 7 3 2 6 5 5 6 4 6 5 6 5 5 10 10 3 10 11 8 7 1
9 11 11 13 14 15 15 15 13 9 9 10 11 13 13 10 9 10 9 8 8 6 3 1 2 2 2 1 3 6 6 8 7 8 9 5 7 8 9 10 9 11 10 11 12 8 9
8 10 10 12 13 14 15 15 14 11 7 8 9 10 9 11 11 10 8 3 3 3 6 9 7 7 5 1 3 9 10 8 5 8 5 7 7 8 9 8 9 11 13 15 14 8 15
7 9 10 10 12 14 15 15 14 12 8 5 7 8 10 10 10 4 2 5 5 4 4 5 4 5 3 4 4 11 13 6 6 7 7 8 4 6 6 7 9 15 15 12 13 17 15
6 9 9 10 11 12 14 14 13 10 9 6 6 9 8 7 4 1 1 0 7 2 5 2 1 4 3 5 4 11 12 8 6 5 5 6 6 6 7 7 10 14 8 13 17 18 15
5 7 8 9 9 11 12 14 13 11 8 8 4 7 9 6 2 2 2 5 3 6 4 4 3 2 5 3 0 6 9 5 3 5 7 5 3 6 8 6 10 11 13 16 17 14 10
2 6 8 9 8 9 11 13 13 11 8 8 8 4 7 10 2 3 4 3 3 4 2 2 4 2 3 5 8 5 6 2 5 7 4 4 6 8 10 7 9 11 16 19 19 15 9
2 2 5 7 8 9 10 13 13 11 7 8 9 6 6 4 4 5 6 2 2 3 0 4 1 2 3 5 4 5 4 2 2 5 3 4 1 3 7 11 14 12 17 19 4 1 3
4 2 3 6 8 9 9 13 14 13 5 7 11 8 3 6 6 6 5 1 3 2 2 5 2 2 2 5 2 5 4 11 10 6 5 8 6 4 5 13 11 16 14 4 4 2 3
6 5 4 5 7 8 8 12 14 14 5 3 6 8 8 4 4 7 4 3 2 4 3 3 2 1 3 7 5 5 8 4 15 14 10 6 3 3 7 5 7 13 7 2 4 4 9
8 6 5 5 6 8 8 10 14 16 7 3 6 9 10 5 5 8 2 1 3 6 5 6 2 4 6 3 3 4 6 7 7 12 8 6 2 8 3 3 5 6 5 5 4 1 1
10 8 7 6 6 6 7 9 13 16 8 4 4 2 10 5 8 5 1 3 3 4 5 2 3 2 5 6 6 6 6 7 4 7 9 4 7 9 2 10 14 7 6 3 1 3 5
12 10 8 6 6 5 5 7 10 15 8 7 4 3 7 5 5 3 1 2 5 4 6 6 5 2 3 5 5 5 4 8 8 9 12 8 3 8 13 2 10 3 6 4 7 5 4
13 11 9 7 6 5 4 5 7 11 8 5 2 1 6 3 3 3 2 3 1 4 3 4 4 6 5 5 5 5 5 6 7 10 8 6 3 5 18 17 3 5 9 8 2 8 9
14 12 10 8 6 6 4 3 5 8 10 5 4 6 8 4 1 1 5 4 5 1 5 3 3 4 3 4 3 4 5 3 7 7 7 9 2 5 8 6 2 14 19 18 14 2 8
14 13 11 8 6 6 5 3 3 4 7 5 2 2 4 3 3 6 5 4 3 4 3 3 2 2 2 4 1 4 7 4 1 6 1 3 6 6 8 15 18 18 22 24 19 12 15
15 13 11 9 7 6 5 5 4 3 4 3 2 2 2 1 2 5 3 1 4 2 1 2 1 1 3 3 6 4 5 9 10 0 1 2 5 11 17 19 20 23 24 24 23 20 18
15 15 13 11 8 7 5 4 4 3 3 6 6 4 1 3 2 2 2 2 3 4 3 3 4 5 4 4 4 11 13 11 8 12 5 4 4 3 9 19 20 20 23 26 25 21 21
16 16 14 13 11 8 6 5 4 2 2 3 3 3 3 3 3 2 2 2 1 4 2 3 7 9 6 8 11 12 16 19 21 17 15 14 3 2 7 10 12 11 15 15 13 17 17
19 17 15 14 13 10 8 6 5 4 3 4 2 1 0 0 2 5 4 5 4 5 4 6 8 5 9 9 14 16 18 22 25 25 22 10 4 3 4 3 6 7 21 24 21 16 17
21 20 19 16 14 11 9 7 6 5 5 4 3 2 0 1 6 8 8 8 9 9 7 10 10 5 6 7 3 6 5 4 6 10 10 7 5 2 3 9 18 15 18 11 18 13 15
24 23 22 19 16 14 12 9 7 6 6 5 3 6 2 1 5 12 12 12 6 6 10 9 9 6 3 3 2 1 3 4 4 7 9 8 8 1 4 13 15 2 17 27 15 15 13
29 26 24 23 21 18 15 13 11 9 8 7 6 8 6 4 10 7 8 7 12 9 5 7 2 4 3 2 1 4 5 8 5 3 3 2 4 6 10 9 9 14 20 16 7 5 28
31 31 29 27 25 22 19 17 15 12 11 10 9 11 10 6 13 11 11 15 13 10 3 5 4 4 2 3 3 4 4 4 4 7 7 8 6 4 4 5 10 3 9 3 16 28 29
31 34 30 31 29 26 24 22 20 17 15 14 15 12 13 13 10 8 14 23 18 19 17 12 6 6 8 4 4 3 3 2 3 9 15 6 7 7 9 8 27 39 37 29 42 33 36

GFSGBSN_850_spd_003.txt.gz
Wind_Speed
9 11 12 12 12 11 9 8 6 6 5 5 7 9 10 13 14 15 14 12 10 10 12 13 6 4 6 9 8 6 7 10 11 17 11 17 15 11 5 4 8 4 4 2 6 7 9
10 11 12 13 14 13 12 10 8 7 7 8 10 11 14 15 15 14 12 11 9 9 10 9 5 4 7 0 3 6 9 9 9 13 9 9 9 10 9 4 3 3 7 3 7 9 8
10 11 13 14 14 14 14 11 9 9 9 11 13 14 15 16 14 13 13 14 14 11 9 6 1 6 4 3 6 4 3 8 5 9 9 6 4 10 5 1 2 9 5 7 9 14 4
10 11 13 14 15 15 15 12 10 9 10 12 14 15 14 13 11 11 12 11 11 8 6 3 2 3 2 4 3 6 6 1 7 4 4 5 4 8 3 7 4 3 2 2 10 11 6
9 11 13 14 15 15 16 14 10 9 10 11 13 14 13 11 11 11 11 9 8 7 3 2 4 4 3 3 3 1 6 7 9 10 11 11 7 6 1 2 4 6 4 7 8 10 3
9 11 12 13 14 15 16 15 11 8 9 10 11 12 12 10 10 10 8 8 8 6 2 5 9 6 2 2 2 7 6 8 11 11 15 12 8 2 5 7 3 6 6 6 4 4 6
9 11 12 13 15 15 16 16 13 9 7 8 10 10 9 10 9 7 5 1 2 2 2 7 8 8 7 1 6 6 9 7 11 13 4 4 6 3 4 4 3 6 7 5 5 10 10
9 10 11 12 13 15 15 15 12 10 7 7 8 8 9 9 8 4 3 2 2 2 1 2 4 5 3 4 5 16 13 9 6 5 5 7 4 3 5 9 7 7 6 6 4 11 8
9 10 11 11 12 14 14 14 12 9 8 5 8 8 8 7 3 1 4 2 5 3 2 4 2 1 2 6 3 8 13 8 4 6 7 3 2 6 6 6 8 5 5 6 7 10 11
8 9 11 11 12 13 14 13 11 7 7 6 6 10 9 7 2 2 5 2 4 7 3 4 5 1 3 2 1 5 12 4 5 3 5 2 2 6 7 3 6 5 7 9 11 7 3
6 7 10 11 12 12 13 14 12 7 6 7 5 7 11 9 4 4 0 0 4 4 4 1 3 1 0 5 9 3 9 2 3 5 3 4 2 4 5 4 4 7 5 12 14 9 2
3 5 8 11 11 11 12 14 14 9 6 8 7 7 8 9 5 3 3 3 4 6 2 2 1 2 2 6 3 9 10 8 4 5 3 5 4 4 1 8 5 7 7 11 5 3 3
2 2 5 8 10 11 11 13 15 10 4 9 9 7 4 6 4 5 4 2 4 5 2 3 3 4 3 4 4 3 7 13 6 6 6 7 4 3 3 5 7 12 6 4 6 4 4
3 1 2 4 8 10 10 13 16 11 4 5 9 9 9 3 5 7 3 4 3 6 6 2 3 3 3 5 1 5 5 4 9 7 3 4 6 6 7 3 4 5 3 4 2 1 5
6 4 3 3 5 8 8 11 15 12 6 7 8 12 11 5 7 7 1 4 5 3 5 6 2 3 3 1 2 4 6 5 5 7 5 6 4 8 3 1 3 6 4 2 2 2 3
9 7 4 3 4 6 7 8 13 13 7 6 6 3 10 6 11 3 4 0 4 8 9 4 4 5 5 6 7 5 5 5 2 10 13 4 5 5 6 5 5 4 0 5 3 2 3
12 9 6 4 3 4 6 7 10 13 6 6 4 3 6 8 3 2 3 3 5 5 7 6 7 5 6 5 5 4 5 5 9 8 15 6 3 8 6 1 4 2 4 2 2 1 3
13 11 9 6 4 2 4 6 8 11 6 6 4 4 4 3 3 4 2 4 3 2 5 3 7 6 5 6 5 6 4 4 6 10 4 3 2 3 9 15 9 6 7 6 3 5 4
15 13 10 8 5 2 2 4 6 8 10 8 6 5 7 6 3 2 4 4 9 8 7 6 3 5 4 3 3 6 2 5 5 3 3 2 3 3 8 6 7 6 15 12 6 0 7
15 14 12 9 7 4 1 2 3 5 8 7 3 3 4 3 4 6 4 4 4 5 4 4 2 2 4 6 6 4 5 5 5 3 6 4 2 5 5 6 5 10 19 21 11 2 8
16 15 14 10 8 6 4 1 2 3 5 5 4 2 2 1 6 11 8 4 6 4 2 2 1 1 4 3 5 3 6 7 12 6 5 6 5 6 8 7 10 14 19 20 15 17 12
16 16 15 13 10 6 4 2 1 3 5 7 4 4 4 5 8 9 6 5 6 5 5 3 4 8 8 3 2 4 5 5 4 4 5 2 6 2 6 11 10 8 20 21 19 14 10
16 16 15 13 11 8 6 3 1 3 5 5 4 5 2 4 4 4 3 3 5 6 4 2 5 3 5 1 4 6 9 13 17 9 5 5 3 2 15 4 5 7 13 4 6 14 13
17 15 15 14 11 9 7 5 3 2 4 5 3 2 2 2 3 2 6 5 6 4 1 5 8 3 5 6 8 11 18 19 13 22 15 4 3 2 4 3 4 8 14 21 16 9 7
19 18 16 15 13 10 7 5 4 4 4 5 3 2 2 1 3 5 5 3 8 8 4 3 6 3 4 5 4 6 5 7 6 6 6 7 5 1 2 3 8 9 9 3 11 17 4
20 19 18 16 14 12 9 7 6 5 5 5 4 2 1 3 5 7 5 6 2 3 3 7 3 4 4 5 3 1 3 4 4 6 9 7 6 3 1 4 7 8 3 11 12 11 8
25 22 20 18 17 15 13 10 9 7 6 7 6 6 4 3 5 5 2 1 3 2 1 0 2 1 3 2 1 4 4 3 3 4 4 3 3 2 2 5 7 7 9 6 4 9 19
29 26 24 22 21 19 17 15 12 10 9 8 9 6 6 4 10 9 8 13 8 4 4 1 5 1 4 2 3 3 4 4 2 4 3 4 2 4 3 4 8 2 4 3 8 16 23
30 30 27 26 24 22 20 18 16 13 12 11 11 11 10 10 8 8 9 15 19 15 8 3 4 1 7 3 2 2 3 1 4 5 4 3 7 4 9 6 9 25 25 31 36 36 31

GFSGBSN_850_spd_006.txt.gz
Wind_Speed
8 10 10 11 11 10 9 8 7 7 6 6 7 9 11 13 14 15 15 13 11 11 14 7 4 6 8 7 8 8 11 13 12 16 16 15 18 10 4 2 5 3 2 2 4 5 5
9 10 11 11 12 11 10 9 8 8 8 9 11 14 16 17 16 14 12 12 11 11 9 3 2 6 5 4 7 9 11 13 11 11 14 10 12 14 4 4 3 3 5 5 10 9 8
9 10 11 12 13 13 12 10 10 10 11 13 15 17 17 16 14 13 13 13 11 9 8 6 3 6 4 3 5 9 5 6 6 9 12 11 10 11 10 5 4 4 4 7 12 6 4
9 10 11 13 14 15 13 11 11 11 12 13 14 15 15 14 13 14 14 14 13 12 8 3 4 5 0 3 4 6 9 3 7 5 8 7 11 11 5 7 5 3 4 4 6 8 4
9 11 12 14 14 15 14 11 11 11 12 13 15 15 14 13 13 13 14 11 10 7 3 2 4 4 2 2 5 4 8 11 7 6 8 11 12 3 3 4 5 6 4 4 9 6 4
9 11 12 14 15 15 15 12 11 11 11 12 14 14 13 13 12 11 11 8 6 3 3 5 5 2 2 1 3 7 11 12 10 15 14 3 3 3 5 5 1 4 5 6 1 6 5
9 10 12 14 15 16 15 12 10 9 9 11 12 12 12 11 9 9 7 3 1 1 4 4 6 5 4 1 6 10 13 6 8 8 3 4 6 2 4 2 4 1 3 3 4 3 7
10 10 11 13 15 16 15 13 9 7 7 9 10 10 10 10 9 6 5 4 4 2 3 4 6 6 3 6 3 10 13 1 4 3 5 7 3 2 5 5 4 6 3 4 6 6 3
9 11 12 12 13 15 14 14 9 8 6 7 8 8 8 8 4 3 8 4 7 3 1 1 1 2 3 4 3 9 12 4 2 5 4 5 2 3 5 6 7 3 2 4 6 7 3
9 11 12 11 13 14 14 13 10 7 6 6 9 9 8 6 4 3 4 5 4 5 4 2 2 1 3 1 2 7 10 4 5 2 2 1 3 4 6 2 3 4 4 5 6 4 2
8 10 12 12 12 13 14 14 10 6 6 5 8 11 10 8 5 4 2 2 4 2 5 3 0 1 3 3 3 7 8 2 2 4 5 4 2 4 4 3 3 7 7 8 4 4 3
5 7 9 11 12 12 13 15 11 6 7 6 6 10 12 11 6 3 3 2 2 6 1 2 1 1 1 3 4 7 16 6 5 4 3 3 2 3 1 4 1 6 6 5 4 3 3
4 4 6 10 12 10 12 14 12 5 6 7 7 7 9 9 7 5 5 1 4 5 2 2 1 2 3 4 5 5 5 11 5 6 7 6 4 4 3 5 7 8 6 4 5 5 4
5 2 3 7 9 9 10 13 13 6 6 8 9 7 6 8 7 7 3 5 6 4 3 1 1 1 2 2 2 5 4 5 7 5 3 5 7 7 6 2 2 4 5 4 1 0 5
6 3 1 3 5 7 7 10 14 7 6 8 9 10 7 5 10 5 1 5 5 4 3 4 3 3 3 5 3 5 4 3 6 7 4 5 4 5 4 5 2 4 4 1 5 2 3
8 5 3 1 2 4 6 8 13 9 6 8 6 9 8 7 9 2 4 3 2 2 3 4 3 4 3 5 4 3 4 5 3 8 2 3 4 2 6 6 3 3 1 5 4 2 3
11 8 6 3 2 2 4 6 10 11 7 7 4 3 5 6 2 2 4 2 2 3 3 4 4 4 4 3 4 3 3 3 3 5 9 2 2 7 4 3 2 5 4 3 1 4 3
14 11 8 6 4 1 2 3 6 11 5 4 3 4 3 4 3 3 2 2 3 3 5 5 5 4 3 4 4 3 2 3 1 2 2 3 4 3 5 8 2 2 3 5 3 5 3
15 13 11 9 6 3 1 1 3 7 9 7 4 4 5 5 3 2 2 4 7 4 6 4 3 4 3 3 3 3 2 4 4 2 3 0 2 3 7 6 8 4 8 4 3 2 6
15 14 12 11 8 6 3 2 1 3 7 6 3 3 4 7 3 6 4 2 3 6 5 5 2 4 5 4 5 1 6 4 2 2 5 4 3 6 5 6 3 9 15 11 4 3 5
18 16 14 12 10 7 5 4 3 3 4 5 4 2 2 2 6 8 4 1 4 2 3 4 5 6 3 2 4 2 3 5 7 1 1 4 5 4 7 8 5 16 17 16 11 14 6
18 17 15 13 10 8 6 5 5 5 5 7 4 3 4 4 3 6 6 3 2 4 3 3 5 2 6 3 3 2 1 0 5 3 2 3 4 4 11 7 8 17 15 13 13 14 9
18 17 15 13 11 9 7 6 6 6 7 6 8 7 3 3 2 4 2 2 2 6 4 7 6 4 4 1 4 5 7 8 13 6 3 2 3 2 6 5 5 10 8 6 5 7 7
19 18 16 14 12 10 8 6 5 6 6 9 9 7 4 2 2 3 2 5 4 4 4 3 3 5 4 2 5 9 15 17 13 16 12 5 3 2 3 1 4 9 6 7 6 8 6
20 19 18 16 14 11 9 8 6 6 7 6 8 5 4 1 2 3 1 1 3 2 1 1 2 2 2 3 4 6 5 7 5 6 2 8 4 1 1 2 7 11 10 2 2 8 5
21 20 18 17 16 13 11 9 7 6 6 6 6 7 5 7 5 4 1 0 2 0 4 3 5 6 2 6 4 3 2 4 5 5 6 6 5 3 2 4 5 8 5 6 5 6 8
23 21 20 18 16 15 13 10 9 8 8 8 7 7 6 5 5 5 4 3 4 4 2 2 5 5 3 3 2 4 4 2 3 4 3 3 2 3 1 6 8 9 12 2 4 8 10
27 24 22 21 19 17 15 12 10 9 9 9 9 8 8 5 6 5 7 8 6 5 4 4 3 1 4 3 3 4 4 5 1 4 5 5 3 4 3 3 8 5 3 2 9 16 30
30 28 25 22 20 19 16 15 13 11 10 10 9 9 8 7 5 8 11 15 16 12 7 7 4 5 8 3 2 2 3 2 4 5 1 3 7 4 8 7 4 8 24 26 26 34 32

GFSGBSN_850_spd_009.txt.gz
Wind_Speed
6 7 8 8 9 8 6 5 4 3 4 4 6 8 11 13 16 15 15 12 11 10 9 7 7 7 7 10 7 10 10 11 11 13 15 18 23 8 5 3 3 4 2 2 3 2 3
6 7 9 9 9 8 7 6 6 6 8 9 11 15 17 18 17 16 13 11 10 10 7 6 6 4 4 6 10 12 9 10 8 13 17 17 11 7 4 3 2 2 4 7 5 9 5
6 8 9 10 10 10 8 8 8 9 11 12 15 18 18 17 15 13 13 12 11 8 7 6 6 5 6 5 8 10 12 7 8 11 11 12 13 12 8 4 7 3 5 6 3 6 5
7 9 9 10 11 12 10 10 11 12 14 15 17 17 17 16 15 14 14 14 13 11 7 5 7 5 4 6 6 6 9 5 6 7 9 9 11 9 5 4 5 5 5 6 7 1 3
7 9 10 11 13 14 11 11 12 13 15 16 16 16 15 14 13 13 13 12 11 8 4 3 4 5 2 4 7 9 12 16 6 5 8 6 6 4 4 4 5 7 1 3 5 7 4
7 8 11 12 13 15 11 11 12 13 13 14 14 15 15 14 12 11 9 9 9 7 4 3 5 3 5 7 8 11 16 9 7 13 6 6 3 4 5 6 1 3 3 4 3 6 7
7 8 10 12 14 15 12 9 10 11 11 11 12 13 13 13 12 11 7 10 5 4 9 5 5 4 4 6 6 11 16 6 7 6 5 5 6 2 2 1 4 1 2 2 4 3 7
7 8 9 11 14 14 13 9 8 8 9 10 11 12 12 11 10 9 9 7 6 4 4 5 7 4 6 7 6 15 13 4 6 3 3 6 2 1 4 5 4 2 2 4 5 5 3
8 9 8 10 12 13 13 9 7 7 8 9 10 10 11 10 8 7 8 9 7 3 3 2 3 4 4 5 4 9 14 4 4 4 4 5 1 4 3 5 6 4 2 3 5 7 1
8 9 9 10 11 13 13 10 6 6 7 10 10 10 10 7 6 7 10 7 3 1 5 6 4 3 5 3 5 10 9 4 6 2 1 1 2 3 5 3 1 4 2 2 6 4 2
8 8 9 10 10 12 13 11 6 5 5 8 11 11 10 8 6 6 6 3 3 0 5 4 1 1 4 2 3 10 9 1 2 3 5 2 3 6 6 4 2 6 7 4 2 3 2
7 6 8 9 9 10 12 12 6 6 6 7 10 12 10 8 7 5 4 1 1 6 0 2 1 1 3 5 5 9 17 5 5 4 5 4 3 3 2 3 4 8 4 5 4 2 2
5 4 6 8 8 9 12 13 7 6 7 7 7 10 11 10 6 4 4 2 5 6 2 1 1 3 3 4 6 5 5 11 5 5 6 6 4 5 4 5 6 8 6 4 5 5 4
5 3 3 5 7 8 10 13 8 5 7 8 8 7 8 8 7 6 4 5 6 3 1 3 3 3 4 5 5 6 3 5 6 5 3 4 6 5 6 1 2 3 3 4 3 1 5
6 4 2 2 4 6 8 12 11 4 9 8 8 9 7 7 7 5 2 5 6 6 2 2 3 4 5 5 3 4 4 3 3 5 3 4 4 4 1 3 1 3 4 2 6 2 3
8 5 2 1 2 5 6 10 12 6 9 8 8 12 10 7 6 2 5 2 1 1 1 2 3 1 2 5 4 4 3 3 3 7 2 3 4 2 6 3 6 5 2 4 4 3 3
11 8 5 2 2 3 4 6 12 7 7 6 4 4 6 5 2 3 4 4 2 4 2 3 2 3 2 1 3 2 0 2 2 3 8 2 2 6 3 5 1 5 4 5 3 3 2
13 10 7 5 3 2 2 4 8 8 4 4 3 4 3 2 4 3 2 2 2 5 8 6 4 3 3 3 4 3 2 2 1 1 2 2 3 3 3 7 4 4 5 4 3 4 3
14 12 9 7 5 4 2 1 3 7 6 6 4 4 7 2 3 2 1 4 5 4 5 3 3 3 4 2 3 2 2 3 3 3 1 2 2 3 7 6 4 3 3 3 4 3 6
15 13 11 9 7 6 4 1 0 3 4 5 3 3 6 6 6 5 4 2 3 5 4 6 4 6 4 5 6 2 5 5 8 3 1 2 2 6 5 6 5 10 5 3 5 3 4
18 15 13 11 9 7 6 4 2 3 3 4 3 2 2 1 5 4 3 2 3 2 3 7 6 4 3 2 3 2 3 5 5 3 3 3 2 3 6 7 6 14 13 16 9 11 6
20 18 15 13 10 7 6 5 4 4 4 3 3 4 4 4 2 3 5 1 4 2 2 2 6 1 4 3 4 2 1 1 4 3 3 2 3 3 4 6 10 15 14 11 14 11 8
20 18 17 14 12 9 7 6 6 6 7 3 7 8 4 3 3 4 2 1 2 5 5 5 10 4 2 4 4 5 8 8 9 4 4 2 4 2 5 6 9 7 7 4 3 5 5
21 19 17 15 13 11 8 7 6 5 7 7 10 8 3 2 2 3 1 4 3 2 6 4 4 4 3 3 2 6 11 12 9 10 13 6 4 2 3 3 1 8 3 6 9 10 6
21 20 18 17 15 13 11 9 8 7 8 8 9 6 3 1 1 1 5 5 5 4 2 3 2 3 6 2 4 6 5 7 4 6 2 6 4 3 2 3 6 9 9 2 3 7 4
24 21 19 18 16 14 13 11 9 8 8 7 7 6 4 8 5 4 4 3 4 2 2 1 4 6 3 5 4 3 3 4 5 5 7 5 5 3 3 4 5 8 4 6 1 6 2
25 24 21 19 17 16 14 12 11 10 10 9 8 8 6 5 5 8 4 4 5 4 3 1 4 3 1 2 2 3 4 3 3 3 3 2 1 4 2 6 8 9 8 1 4 5 7
27 25 24 21 19 18 15 13 12 11 10 10 9 9 9 5 6 9 8 7 7 6 4 6 3 1 4 2 3 4 3 5 1 4 4 4 3 4 2 3 8 2 1 5 10 22 25
30 27 25 23 21 19 17 15 12 10 10 9 9 9 8 7 5 13 14 12 12 10 7 11 4 5 10 4 1 2 3 2 4 5 2 3 8 4 9 6 7 7 15 31 25 29 24

GFSGBSN_850_spd_012.txt.gz
Wind_Speed
5 6 7 7 7 7 7 5 3 2 0 2 4 7 8 10 13 14 15 14 15 13 8 6 6 4 8 10 8 14 10 10 12 13 17 17 17 6 4 4 4 4 2 4 3 5 4
4 6 7 7 8 7 6 3 3 3 4 5 8 11 14 16 17 16 15 13 13 11 7 6 6 7 8 9 12 13 10 6 8 14 16 18 12 6 8 4 5 2 2 3 2 2 2
5 6 6 9 10 8 5 5 6 7 9 12 15 17 18 17 16 15 14 14 12 9 8 8 8 8 12 8 10 13 11 8 7 11 13 13 13 8 2 3 7 4 4 6 9 5 2
4 5 7 9 10 8 6 8 9 10 12 14 16 16 16 16 15 14 14 13 11 10 7 8 9 9 7 8 8 9 13 3 4 8 8 8 10 8 6 3 7 6 6 5 6 4 5
3 6 8 9 11 9 8 9 10 12 13 14 14 16 16 16 16 15 14 12 11 9 6 7 8 7 4 6 11 13 19 9 6 8 7 6 6 6 7 5 5 7 1 2 7 6 5
3 6 8 10 12 10 8 9 11 12 13 13 15 16 17 16 14 12 12 12 12 7 6 7 10 6 9 9 11 12 10 8 6 6 5 7 6 5 5 6 1 2 2 3 2 5 7
4 6 7 10 11 11 8 8 10 11 11 12 14 16 16 14 12 11 12 13 6 6 14 10 6 4 6 6 13 17 9 7 8 10 5 7 7 3 3 1 1 1 1 3 3 2 5
4 4 6 9 10 12 8 7 8 9 10 10 13 15 14 12 11 12 10 8 8 5 8 9 9 7 9 10 10 22 13 6 8 3 2 6 4 1 6 5 4 3 2 4 5 3 0
5 5 5 8 9 11 9 6 6 8 9 10 12 13 13 11 10 9 8 13 8 5 5 6 7 6 5 7 8 15 14 5 6 5 5 5 1 5 4 5 6 4 2 3 5 6 1
6 6 5 6 9 11 10 6 5 6 9 10 11 11 10 9 7 12 12 8 6 3 5 7 5 4 6 3 5 18 11 5 6 3 2 3 4 5 5 4 2 3 2 2 5 2 1
6 6 5 6 8 11 11 6 5 4 7 11 11 10 9 7 8 9 9 5 3 2 5 4 4 3 6 6 2 17 12 5 4 4 4 1 3 5 6 2 1 7 4 2 1 3 3
6 5 5 6 7 10 12 8 5 4 5 10 11 10 9 7 8 8 6 3 2 7 0 2 2 4 4 10 6 9 16 8 7 5 6 2 2 3 2 3 2 6 4 5 4 2 3
7 3 3 5 7 9 12 10 4 4 5 7 11 11 10 8 6 5 4 2 5 6 3 2 2 3 5 6 5 7 7 9 4 4 6 6 3 6 4 5 6 9 6 3 5 5 3
7 4 1 4 7 8 11 12 5 5 6 7 8 9 10 8 4 5 4 5 6 3 1 1 2 4 4 3 4 6 3 5 5 5 3 4 5 5 6 1 2 3 4 4 2 1 4
8 5 1 2 6 8 10 13 7 7 8 7 9 9 9 8 7 6 2 5 6 5 1 2 3 4 3 3 4 4 4 2 3 4 3 4 3 5 1 3 1 2 4 2 5 2 3
9 6 3 1 4 6 8 11 8 7 7 8 11 12 10 9 7 4 5 3 1 3 1 2 3 1 2 5 3 4 2 1 2 5 0 1 2 1 4 1 8 6 4 4 3 2 3
10 7 4 1 1 4 6 8 9 5 7 6 3 5 6 7 5 3 4 4 2 4 3 3 2 3 3 2 3 2 1 2 1 2 7 2 2 5 1 5 1 4 3 5 4 3 3
11 8 5 3 2 3 4 5 8 5 6 4 2 4 3 4 4 3 2 1 2 3 7 5 5 3 3 3 4 2 2 2 5 3 3 2 4 3 4 1 1 2 3 4 4 3 1
12 10 7 5 3 2 3 4 5 7 6 5 4 4 6 3 3 2 0 3 5 3 5 3 3 4 4 3 4 3 3 3 5 3 2 1 2 4 8 5 5 4 1 4 5 3 6
15 11 9 7 5 3 3 3 2 4 4 4 3 2 5 6 6 6 4 2 3 6 6 8 4 5 5 5 6 2 2 3 6 3 5 3 2 5 5 7 5 5 4 4 5 3 4
17 14 10 8 6 4 3 3 2 2 3 3 3 2 2 0 4 5 4 2 3 3 4 6 5 4 4 3 3 2 2 4 4 3 3 4 2 4 6 9 8 11 11 8 8 8 6
18 15 13 11 8 6 4 3 3 1 1 1 3 5 5 5 3 4 5 1 3 2 3 2 6 2 3 4 4 3 3 2 5 2 2 3 3 1 4 4 5 7 11 11 9 7 11
18 16 14 12 10 7 5 4 4 3 2 1 4 8 4 3 3 4 2 3 4 7 5 4 12 4 3 4 4 3 6 5 2 1 2 0 3 2 5 4 9 6 4 4 3 6 5
20 17 15 13 11 9 7 5 4 4 4 2 7 7 4 2 2 2 2 3 4 2 6 6 7 4 4 4 2 4 6 5 5 5 7 5 4 2 3 5 2 6 3 7 7 9 9
20 18 16 14 13 10 8 6 5 5 5 4 7 4 3 2 1 3 7 7 7 7 4 4 2 4 8 2 4 6 5 6 3 6 2 5 5 2 2 3 6 12 6 2 2 7 3
21 19 17 16 14 12 9 8 7 7 6 5 6 5 4 9 5 6 5 6 3 2 3 3 6 9 5 5 4 3 3 4 4 4 7 5 5 3 2 4 5 8 3 3 2 6 2
23 21 19 17 16 14 11 9 8 8 8 7 6 5 4 3 4 9 4 6 6 4 3 3 5 4 4 2 3 3 4 2 2 2 2 2 0 4 3 4 8 10 11 1 3 5 5
25 23 22 19 18 16 13 11 9 9 9 9 8 7 6 3 5 8 6 6 6 6 4 6 4 1 4 3 3 3 3 5 2 4 5 4 3 4 2 3 8 4 3 3 9 16 21
26 26 24 22 19 17 15 13 11 10 9 9 7 6 6 4 2 8 9 8 8 5 7 11 2 4 7 4 1 3 3 2 5 3 1 3 7 3 8 7 6 7 16 32 30 27 25

GFSGBSN_850_spd_015.txt.gz
Wind_Speed
2 4 6 6 8 9 9 7 5 5 4 4 6 8 10 11 13 16 18 18 18 14 9 6 6 8 11 13 10 11 6 7 9 10 14 14 13 9 4 4 5 5 2 3 3 7 3
3 4 5 7 8 8 6 4 2 1 1 4 7 9 12 15 18 19 19 18 16 12 9 8 7 11 11 14 11 10 6 3 8 11 13 11 8 13 8 4 4 3 4 3 4 2 2
3 4 5 7 8 6 4 3 3 4 6 9 11 14 17 19 19 19 19 18 15 12 10 8 9 14 15 6 9 7 7 4 7 9 11 10 12 5 4 3 5 4 4 2 12 6 4
3 3 6 7 8 6 5 5 6 9 11 13 15 16 17 17 18 19 20 18 15 13 10 10 11 10 7 9 8 7 6 5 6 6 9 10 10 16 6 5 6 5 4 4 4 8 4
2 4 6 8 9 5 6 7 9 12 13 14 15 17 17 17 17 19 18 16 14 10 7 8 8 7 3 6 10 10 8 8 8 10 10 8 11 10 8 3 4 8 3 3 4 4 5
3 4 5 8 9 6 6 8 10 12 13 15 17 18 18 17 17 18 17 15 11 7 5 9 8 7 7 7 15 8 8 9 7 7 6 9 8 5 5 5 1 0 1 1 3 5 6
4 3 5 7 9 7 7 8 11 11 12 14 17 17 17 15 15 16 16 13 8 9 15 10 8 11 9 8 17 13 8 10 10 10 4 8 8 4 2 1 3 3 2 3 3 2 5
5 3 5 7 9 8 7 8 10 11 12 14 16 16 15 14 15 14 12 9 7 9 10 12 11 10 12 13 9 19 11 5 7 4 2 6 4 1 4 4 2 1 2 1 3 1 1
5 4 4 6 8 9 7 7 8 11 11 13 14 15 13 13 12 12 11 11 10 7 6 9 10 10 6 12 11 17 11 5 7 5 5 5 1 2 1 4 5 1 2 2 3 7 1
6 5 4 6 8 9 7 7 7 10 11 12 13 13 11 10 10 13 13 10 7 4 5 8 6 6 8 3 6 17 9 4 6 3 3 5 4 3 3 3 2 3 2 4 4 1 1
6 6 5 6 7 10 8 6 7 8 11 12 11 11 9 6 9 9 10 6 4 1 5 4 5 4 12 9 2 20 11 11 4 3 2 0 2 4 5 2 1 3 2 1 1 3 2
7 6 6 6 7 10 9 5 6 6 10 12 11 10 8 7 8 10 8 4 2 6 1 2 3 4 6 12 7 9 9 11 5 5 5 2 2 3 2 2 1 4 2 3 3 2 1
7 6 6 6 6 9 11 7 6 6 8 12 12 11 9 7 9 7 5 2 5 5 3 1 3 4 5 5 5 7 6 9 4 3 5 5 3 5 4 4 3 8 3 1 2 2 1
8 6 4 5 6 8 12 9 8 7 8 10 12 11 10 9 7 7 4 5 6 3 2 1 3 4 4 3 4 6 3 5 5 4 3 3 1 4 5 2 2 4 2 2 1 2 4
9 6 4 4 6 8 11 11 9 9 9 10 12 11 10 8 6 7 2 5 6 5 2 4 3 4 2 2 4 4 4 2 3 4 3 2 2 3 4 3 1 1 4 1 5 1 1
10 7 4 4 4 7 10 11 8 10 9 10 10 11 10 10 9 7 5 3 1 4 2 2 3 1 3 3 3 3 2 2 1 6 1 1 2 2 3 1 8 3 4 1 3 2 2
11 8 4 3 3 5 8 10 8 9 8 8 6 5 5 9 8 3 4 3 3 2 2 3 3 3 3 3 3 2 1 3 3 2 6 1 1 2 0 4 1 2 2 5 4 1 1
12 9 5 2 2 4 6 8 9 8 8 6 3 4 5 9 4 3 3 5 4 2 5 4 5 4 3 3 3 3 3 1 3 1 2 1 2 2 2 2 1 2 3 3 2 2 1
13 10 7 3 1 2 4 6 8 6 8 5 4 5 5 7 3 1 1 3 4 2 4 3 3 3 3 3 4 2 3 1 5 2 1 2 2 3 2 2 2 2 2 4 4 2 7
15 11 8 5 2 0 2 4 5 7 5 5 4 2 3 4 6 7 5 2 4 6 5 7 4 4 4 4 5 3 2 1 3 2 3 2 2 4 4 4 2 5 4 4 4 3 4
15 13 10 7 4 2 1 2 3 4 4 3 2 2 3 1 3 6 4 3 4 3 4 4 4 3 5 3 2 2 1 2 2 2 2 3 3 3 5 9 5 8 13 10 12 12 7
17 14 11 8 6 4 2 0 1 2 2 2 3 5 6 4 4 5 4 1 4 3 2 2 6 2 3 4 4 4 3 2 3 2 2 2 2 1 4 6 5 9 12 11 12 14 13
18 15 12 10 7 5 3 2 1 1 1 2 4 8 4 3 2 4 2 4 5 8 6 4 13 5 4 4 5 3 4 3 2 3 2 1 3 1 3 5 9 6 3 4 3 6 4
19 16 14 11 9 7 5 3 1 1 2 3 6 7 4 1 2 3 4 3 4 3 7 6 6 5 4 6 5 1 2 5 3 5 1 4 3 1 3 4 2 1 4 7 9 12 7
18 17 15 13 10 8 6 4 2 2 2 4 8 4 4 3 2 3 8 8 11 8 5 6 3 6 10 4 3 4 4 5 3 7 3 2 4 2 2 3 7 10 2 2 3 6 3
16 17 16 14 13 10 8 6 4 4 5 5 6 6 5 12 5 8 6 7 4 3 3 3 6 10 5 5 3 3 2 3 2 1 4 4 4 1 3 3 5 5 1 4 3 8 2
17 18 17 15 14 13 10 8 7 6 6 5 6 7 5 6 9 10 4 5 6 5 3 3 5 4 4 2 2 2 3 1 2 1 2 1 1 4 5 5 8 9 6 2 2 4 5
18 19 18 17 15 14 12 10 9 7 6 6 6 6 6 5 10 7 6 6 7 6 4 8 5 0 3 3 3 3 2 3 2 2 3 3 3 4 3 4 7 2 3 2 3 21 20
19 20 20 19 17 15 13 11 10 9 7 7 6 5 6 4 5 6 6 5 5 4 6 13 3 5 7 4 1 3 3 2 4 3 2 4 6 3 8 6 5 6 17 21 19 12 10

GFSGBSN_850_spd_021.txt.gz
Wind_Speed
9 7 9 10 11 13 15 16 15 14 12 11 9 9 9 10 11 13 15 17 17 15 11 8 12 11 5 7 6 3 5 7 5 2 5 3 3 3 2 7 7 10 9 10 9 7 2
8 7 8 9 11 12 13 13 12 11 10 9 8 8 9 11 13 15 18 18 17 13 10 10 12 12 9 5 0 3 5 5 3 3 2 2 2 4 6 10 3 8 10 8 7 6 4
7 7 7 8 10 11 10 9 9 8 7 6 7 8 11 13 17 20 20 19 14 11 9 11 14 11 8 5 2 2 4 3 3 2 0 1 2 6 10 6 6 9 9 10 8 9 5
7 6 6 6 8 8 7 6 5 4 3 5 7 11 14 17 21 22 21 17 13 10 10 11 14 11 2 2 2 2 3 3 2 2 4 5 4 3 3 6 7 11 9 11 8 8 4
7 6 4 5 7 6 4 2 2 3 6 8 11 15 18 21 22 23 20 16 11 10 11 13 10 5 3 2 3 3 2 3 3 3 4 4 3 5 6 12 11 9 10 1 8 2 2
8 6 3 3 6 3 2 2 4 5 8 11 13 17 19 21 22 21 17 13 10 12 11 7 4 7 3 1 2 2 3 4 6 7 7 6 7 10 11 10 7 6 3 4 6 7 5
9 6 3 2 5 2 3 5 5 8 10 13 15 16 18 20 20 18 16 13 8 5 7 4 10 4 7 3 5 4 4 5 8 10 10 6 11 4 10 6 7 5 5 4 4 5 6
9 6 3 2 3 1 5 7 8 10 12 13 15 16 18 20 19 17 16 4 3 10 11 8 8 7 4 3 9 6 3 9 10 9 4 9 5 4 2 3 3 3 5 1 0 3 6
10 7 3 1 2 2 6 9 10 12 13 13 13 14 16 16 15 15 5 3 18 9 8 6 4 4 3 5 4 4 2 3 4 4 5 9 9 2 3 2 7 3 7 6 9 7 10
10 7 4 2 1 2 8 10 12 14 14 13 13 14 17 16 11 10 4 9 12 4 4 6 4 3 2 3 4 6 3 1 1 3 7 6 4 0 1 2 8 9 4 8 10 8 7
11 8 5 3 1 2 8 11 13 15 15 13 12 12 13 13 8 8 9 11 9 5 3 4 4 2 3 2 4 5 5 2 3 7 5 5 3 0 1 5 6 5 7 8 8 9 10
12 9 6 4 2 2 7 12 14 16 16 15 12 10 9 6 10 10 9 9 5 4 3 6 4 7 10 9 6 5 5 6 4 4 6 8 3 4 6 5 4 7 8 6 6 5 5
13 9 6 4 2 1 5 12 15 17 17 16 13 10 9 10 8 10 8 7 5 4 3 7 9 5 7 8 8 7 5 5 0 5 5 6 4 4 6 10 5 8 7 4 3 4 2
14 10 7 5 3 1 5 12 14 17 19 17 14 11 9 9 10 11 8 6 6 3 6 4 8 10 5 7 4 4 6 9 10 5 2 3 7 6 6 5 6 5 6 3 4 3 4
14 11 7 6 4 3 5 12 13 16 19 18 15 12 7 9 10 10 10 6 3 7 7 11 12 9 8 5 2 4 9 7 7 9 3 3 4 5 4 5 6 3 4 3 2 1 3
15 11 8 6 5 4 6 11 13 14 18 19 11 10 8 10 10 9 6 3 2 2 3 13 7 4 7 7 5 3 2 2 4 8 6 3 2 1 3 4 3 6 3 4 1 3 4
16 12 9 7 6 6 6 11 13 14 18 19 11 11 8 10 10 9 5 3 4 6 3 3 3 5 6 5 4 3 3 5 3 4 5 5 3 4 3 2 8 1 1 3 4 3 4
16 13 10 8 6 7 6 9 13 16 17 17 9 6 11 14 9 6 5 6 4 9 4 3 2 4 6 5 3 3 5 5 2 3 4 5 2 2 4 4 3 4 4 5 3 4 3
16 13 11 8 7 6 7 8 14 16 17 9 6 6 11 14 4 3 5 6 4 8 3 4 3 2 4 6 4 6 6 4 3 4 6 5 1 3 4 6 5 4 1 2 2 3 10
17 14 11 9 8 7 7 7 12 15 14 8 6 3 6 8 5 10 10 10 7 4 4 4 6 7 8 6 4 7 7 4 2 4 3 3 2 3 5 9 9 8 10 9 9 7 10
19 15 12 9 7 7 6 7 9 12 13 8 2 2 5 7 6 10 10 10 10 5 3 7 4 4 8 4 7 5 7 6 3 2 1 3 2 5 9 12 12 12 13 13 14 15 14
18 15 12 10 8 6 6 6 7 9 10 4 4 4 3 3 8 10 4 10 12 5 8 7 7 8 6 7 3 6 5 3 2 4 1 2 0 4 4 6 9 13 16 17 16 10 14
19 16 13 10 8 6 5 6 6 7 7 3 4 8 6 3 8 8 7 9 9 10 3 3 11 8 9 9 11 10 8 5 3 1 3 1 1 2 4 10 13 5 2 1 4 7 8
19 16 13 11 9 7 6 5 6 6 6 4 6 6 5 4 7 8 7 9 11 6 9 10 8 7 5 10 10 9 9 5 1 2 2 4 1 2 3 6 3 4 6 12 10 8 8
21 18 15 12 10 8 7 5 5 6 6 5 10 4 4 3 6 6 10 14 11 13 15 12 6 7 11 3 1 2 1 3 0 3 3 3 3 2 2 5 13 10 3 4 9 13 13
21 20 17 15 12 10 8 7 6 6 7 8 7 6 3 13 5 11 12 15 11 7 7 5 7 7 4 3 2 2 3 1 5 6 4 3 1 3 3 3 4 3 1 1 5 12 9
21 21 19 16 14 11 9 8 7 7 8 8 7 7 4 6 6 9 8 11 7 10 5 7 7 4 3 2 1 3 3 2 3 3 4 2 2 5 6 5 7 9 2 4 6 3 14
21 21 20 17 15 12 10 9 9 9 8 7 7 6 6 5 7 4 5 7 7 10 5 10 6 2 3 2 4 3 1 4 2 3 5 7 6 4 4 4 6 4 5 1 9 17 9
20 20 20 18 16 14 12 10 10 10 9 8 4 5 5 5 6 9 9 11 10 7 5 13 1 7 9 3 3 2 3 0 0 3 6 5 7 4 8 5 12 12 14 11 7 7 9

GFSGBSN_850_spd_024.txt.gz
Wind_Speed
14 14 13 13 13 13 15 17 16 16 15 14 12 12 11 10 10 11 12 12 14 15 11 8 9 11 8 8 1 5 7 5 2 1 8 11 14 8 8 6 7 8 8 12 10 7 3
14 13 12 12 12 13 15 15 14 14 13 11 10 10 10 10 10 12 13 15 16 14 9 7 10 11 8 13 1 1 4 5 1 7 3 3 6 5 4 7 7 10 10 11 10 7 5
14 12 11 10 11 12 13 12 12 11 10 9 9 9 9 10 12 14 16 18 16 11 8 10 11 10 7 5 2 1 2 2 3 7 9 1 4 6 5 6 3 7 7 6 7 9 8
13 13 9 9 10 11 11 9 9 8 7 6 6 8 10 12 15 18 20 18 13 9 9 11 14 11 7 3 5 4 2 3 2 3 4 2 2 8 6 6 5 8 10 9 10 8 7
13 11 8 9 9 9 8 6 6 5 3 2 5 8 12 16 19 20 19 13 10 8 9 12 12 10 8 2 4 2 4 3 2 1 1 0 4 5 2 7 8 10 9 9 9 7 2
13 10 8 7 7 7 5 4 3 1 1 4 7 11 15 19 20 19 15 11 8 9 11 10 8 12 6 2 1 3 3 3 4 4 4 4 6 6 9 9 2 10 7 4 2 8 5
13 10 8 6 6 5 3 3 2 2 4 6 10 13 16 18 19 17 15 13 6 4 11 6 12 2 4 3 5 3 5 4 4 7 10 8 9 2 13 9 6 9 6 6 7 8 3
12 10 8 5 5 3 4 4 3 4 6 8 10 12 15 17 17 17 14 6 3 3 8 0 4 2 2 1 7 5 4 6 6 11 4 4 3 7 5 7 6 5 5 4 3 5 4
13 10 8 5 4 3 5 5 5 6 8 9 11 13 15 16 15 15 8 5 3 7 7 6 3 6 1 4 3 4 3 8 9 10 7 9 10 5 4 2 8 4 4 8 7 10 9
13 11 8 5 3 3 5 7 7 8 10 9 9 11 14 13 10 8 5 4 6 1 5 7 8 5 4 4 4 1 4 4 3 2 3 8 3 2 1 2 7 7 6 5 8 9 9
13 11 9 6 3 3 6 9 9 10 11 10 9 12 14 13 4 8 6 6 4 6 4 5 5 3 6 4 10 4 3 5 5 2 3 6 4 1 2 6 6 5 6 7 8 10 11
13 11 9 6 4 3 5 10 11 12 11 10 8 11 12 3 5 3 6 4 3 4 4 6 6 8 7 5 1 5 3 3 4 3 6 8 3 6 7 4 2 7 9 11 8 9 4
14 12 9 6 4 3 6 11 13 13 13 12 9 9 9 6 4 6 7 7 4 4 7 8 10 8 10 6 6 7 6 5 3 5 6 6 5 6 6 10 7 6 8 4 2 4 2
15 12 9 6 4 3 5 11 14 14 14 13 11 8 6 8 5 8 7 6 6 4 6 8 11 9 7 7 4 2 10 8 8 10 4 8 7 4 5 6 7 5 6 2 4 4 6
16 13 9 7 3 2 5 12 14 16 16 15 11 8 3 6 6 9 6 6 2 4 8 7 11 9 4 4 1 3 11 7 6 9 6 3 6 6 5 6 7 6 5 4 3 2 2
17 13 10 8 4 2 5 12 14 16 18 16 11 7 7 7 7 8 5 7 1 6 4 10 9 5 8 8 8 7 4 2 4 8 7 4 2 3 3 3 2 4 1 2 1 2 3
17 14 11 9 6 3 5 11 14 16 19 18 11 7 9 10 8 7 6 5 1 3 4 5 4 4 2 6 3 3 4 5 4 4 6 7 3 5 5 6 7 1 2 2 3 1 2
18 14 11 9 7 4 5 11 13 17 22 21 9 4 10 12 8 11 8 2 1 8 3 2 4 2 4 4 3 4 8 7 3 3 6 4 2 1 7 6 4 3 5 4 1 4 1
18 15 12 10 8 5 5 11 15 19 23 16 7 6 14 17 5 4 3 5 6 8 8 5 2 1 2 5 3 6 8 3 4 7 4 4 1 3 8 5 4 0 3 2 4 2 5
18 15 12 10 8 6 6 10 16 19 21 15 8 3 6 11 11 12 8 7 5 4 5 1 4 4 6 5 3 6 9 4 5 8 3 3 1 1 2 6 7 7 10 8 10 4 6
19 15 12 9 8 7 6 9 16 18 17 9 6 6 10 7 9 7 11 9 10 6 5 6 5 6 6 3 5 5 10 8 5 3 2 3 1 4 7 9 8 9 11 11 12 12 9
20 16 13 10 8 7 6 8 12 15 14 11 5 3 6 6 16 10 5 7 11 7 9 9 4 7 8 6 3 7 6 5 4 4 2 3 1 3 3 5 10 13 15 13 13 13 10
20 16 13 11 9 7 6 7 9 11 13 6 3 2 6 2 4 5 5 8 9 10 2 4 7 7 11 13 14 13 13 10 6 4 4 2 1 2 3 9 10 3 3 6 8 7 9
20 17 14 11 9 7 6 6 7 9 10 5 6 3 4 2 5 8 9 7 8 10 6 8 8 9 8 13 11 12 12 8 1 5 2 4 2 2 2 4 2 4 14 11 7 6 9
21 18 15 12 9 7 6 6 6 6 6 6 7 4 3 2 10 5 10 8 13 8 11 13 10 8 14 4 2 2 2 4 1 4 3 4 3 2 1 3 9 9 3 5 5 9 9
21 19 16 13 11 8 7 6 6 5 5 5 7 8 3 8 2 7 8 14 8 9 7 5 6 7 4 3 2 2 3 2 6 6 9 4 4 2 2 2 3 3 7 4 6 8 10
21 20 17 15 12 10 8 6 6 6 6 6 6 7 5 5 2 1 8 10 12 11 5 8 6 4 1 2 2 3 2 2 4 5 4 2 2 3 5 5 6 8 6 1 3 3 10
21 21 19 16 14 11 9 8 7 7 7 7 5 6 7 4 4 3 4 5 2 10 4 12 5 2 3 3 3 2 1 3 1 3 6 7 6 4 4 3 6 1 4 2 6 13 7
21 21 19 17 15 13 10 9 8 8 8 7 3 5 6 5 6 8 9 9 8 5 7 15 2 7 8 3 2 1 2 1 3 2 6 4 6 4 9 5 11 9 5 3 5 7 7

GFSGBSN_850_spd_027.txt.gz
Wind_Speed
14 15 15 15 15 15 16 16 18 18 17 16 15 14 12 11 11 10 11 12 11 12 11 9 10 8 4 6 9 2 4 1 2 5 8 8 16 18 8 6 8 9 7 14 7 12 13
14 15 15 14 14 14 15 16 16 16 15 14 13 12 11 10 10 11 11 11 13 13 10 8 9 5 4 7 2 2 2 6 7 8 17 17 6 8 4 6 7 12 15 12 7 6 4
15 14 14 13 13 13 14 14 14 14 13 12 11 10 10 9 10 11 12 14 15 12 8 8 7 6 8 13 5 2 1 5 7 9 14 4 6 11 9 6 9 14 6 7 8 13 5
15 13 13 13 12 12 12 13 12 11 10 9 8 7 9 10 11 13 15 16 13 9 8 7 7 8 8 4 7 5 4 2 6 7 7 4 4 9 8 9 4 3 5 4 6 11 9
15 13 13 12 11 11 11 11 8 7 6 5 5 6 9 12 14 16 16 13 10 8 7 8 8 7 8 3 8 2 6 7 2 3 4 2 3 4 3 3 3 2 5 7 4 13 5
16 13 13 11 10 9 9 7 5 4 3 2 3 7 11 15 17 18 15 11 7 6 8 8 6 5 12 4 7 7 4 4 3 4 4 3 4 2 5 4 3 4 3 5 8 3 3
15 14 11 11 9 8 7 4 3 2 1 2 6 9 14 17 18 17 15 10 6 2 12 11 8 10 6 3 7 9 5 2 4 8 4 10 5 4 4 4 3 3 5 10 5 5 3
16 14 12 9 8 7 5 4 2 1 3 4 8 11 14 16 17 16 16 5 4 2 7 15 4 5 2 3 5 9 9 3 4 6 7 4 4 4 3 2 5 6 6 5 3 4 4
17 15 12 8 8 6 5 4 3 4 6 6 8 10 13 14 13 14 12 4 7 5 5 5 4 8 3 4 1 8 2 9 8 6 5 6 3 2 4 7 9 8 6 5 3 6 3
16 15 12 9 8 5 5 5 5 6 7 7 9 11 13 12 9 8 9 3 7 6 4 3 3 3 3 5 4 3 5 5 4 3 10 6 5 4 4 8 7 5 6 6 6 4 3
17 16 12 9 8 6 6 7 7 8 8 9 8 11 12 12 3 8 6 7 2 5 4 7 5 8 7 2 12 2 4 4 4 4 7 2 4 8 9 4 4 1 2 4 3 4 3
17 16 12 10 8 6 7 8 10 10 10 10 10 13 13 3 4 4 6 2 1 5 2 2 6 5 5 4 1 7 3 2 2 6 8 5 11 4 4 3 3 5 4 6 5 2 2
18 16 13 10 8 6 7 10 12 12 11 10 10 12 10 5 2 3 2 4 5 3 6 5 4 7 7 3 4 7 5 3 3 3 2 3 4 4 3 4 1 4 6 4 4 4 3
19 16 13 11 8 6 7 12 15 14 13 12 11 11 7 7 3 5 3 4 1 4 5 5 6 4 7 2 4 3 6 4 8 6 3 5 1 5 5 5 2 4 3 4 0 1 4
19 17 13 11 8 5 7 13 16 16 15 13 11 8 5 5 4 6 2 3 5 4 5 6 5 5 4 3 1 4 7 3 5 7 4 4 3 3 6 3 3 6 5 3 4 2 3
20 16 14 11 8 5 7 14 17 18 17 14 11 7 5 5 4 5 4 4 1 6 3 4 5 6 7 8 4 3 3 5 3 5 5 4 4 2 4 1 3 4 2 5 4 1 3
20 17 14 12 8 6 7 14 17 18 19 16 12 5 8 6 5 3 3 5 3 5 12 5 3 2 2 7 6 4 4 4 7 2 10 5 4 3 1 4 4 4 3 4 2 4 4
20 17 14 11 8 6 8 13 16 19 21 20 11 1 10 12 3 4 2 4 2 4 4 3 3 4 3 4 5 5 5 4 5 8 3 3 4 3 3 3 3 1 2 4 4 3 1
20 17 14 11 8 6 7 13 16 21 26 22 7 5 10 15 3 2 7 2 2 5 4 0 5 6 5 4 5 9 5 7 10 5 1 3 2 3 4 4 5 2 2 5 5 3 4
21 17 14 11 9 7 6 12 18 23 28 21 3 2 4 10 9 4 4 3 3 8 2 4 5 4 1 5 4 4 4 3 7 4 3 3 2 5 5 2 1 2 4 4 6 3 3
21 18 15 11 9 7 6 11 18 23 26 13 4 4 10 4 6 5 6 8 5 2 1 3 1 3 4 3 4 5 5 4 2 1 1 3 3 4 4 5 5 3 4 6 4 5 4
21 18 15 12 10 8 8 9 16 20 21 12 4 3 15 11 22 4 5 6 9 8 6 4 3 6 8 5 3 5 8 5 4 5 4 4 1 2 3 5 7 4 7 8 7 4 3
22 18 15 12 10 9 8 9 13 17 17 8 4 1 3 3 6 3 4 1 3 9 3 5 7 11 13 7 20 18 19 15 9 5 3 3 4 3 3 4 6 4 4 3 1 2 1
22 18 15 13 10 9 8 9 11 13 13 5 4 3 4 2 2 4 6 5 8 7 6 14 15 9 12 17 16 14 17 16 11 10 7 4 3 3 2 4 2 4 4 2 6 5 6
22 19 16 13 11 9 9 8 9 11 11 8 8 5 4 1 2 2 4 10 21 27 13 19 14 14 17 5 4 5 5 6 5 7 5 5 4 3 3 1 6 6 3 3 4 3 8
22 19 17 14 12 10 9 9 9 9 8 7 11 8 5 8 3 4 3 19 5 4 4 5 11 8 5 5 4 4 4 6 3 2 11 6 6 4 2 3 6 6 4 7 3 3 7
22 20 17 15 12 10 9 8 8 9 8 8 10 8 6 5 6 7 3 7 11 9 4 6 3 3 4 3 2 3 3 2 5 7 3 3 2 4 3 3 7 7 3 3 4 5 9
22 20 17 15 12 11 9 8 8 8 8 8 10 9 8 5 6 5 6 8 11 16 5 11 4 0 4 3 3 3 2 4 2 7 6 7 6 3 2 3 7 7 2 6 5 9 12
22 20 17 15 13 11 9 8 8 8 8 9 10 9 7 4 5 5 9 9 12 10 12 19 4 6 7 4 1 2 0 1 1 3 4 2 7 6 8 6 7 7 6 9 8 13 6

GFSGBSN_850_spd_030.txt.gz
Wind_Speed
18 17 17 16 14 15 15 15 16 17 18 18 17 17 15 14 13 12 11 11 11 11 10 9 6 4 3 6 9 3 5 6 7 7 8 10 9 6 6 3 5 8 4 11 13 11 13
18 17 17 15 14 15 15 15 15 17 17 17 16 16 14 13 12 11 11 11 11 11 11 8 5 3 5 5 3 5 3 5 8 3 9 9 6 11 11 13 7 10 13 10 8 6 6
19 18 16 15 13 14 14 15 15 16 15 15 14 13 13 11 11 10 10 11 11 11 10 5 4 5 9 15 5 1 5 4 5 10 8 9 6 9 3 6 18 17 6 5 2 4 3
19 17 16 14 13 13 14 14 14 13 12 12 11 11 10 10 10 10 11 12 13 10 6 4 5 5 9 5 8 4 5 3 1 4 5 5 3 5 9 3 6 5 5 3 4 5 2
20 17 16 14 12 12 13 13 12 10 9 8 8 8 8 10 11 12 14 14 11 7 4 3 3 5 10 7 9 3 3 6 3 3 4 4 5 4 5 4 5 5 4 5 2 12 3
20 18 16 14 12 12 12 11 10 7 6 5 6 7 9 11 13 16 15 11 7 5 5 5 4 3 11 6 6 5 6 4 2 3 6 4 6 4 4 5 3 5 4 4 6 4 3
20 18 17 15 13 12 9 9 7 5 3 4 5 8 11 15 16 17 15 11 6 3 9 9 8 5 6 6 9 10 6 5 2 2 0 7 6 2 5 4 4 2 3 9 1 0 3
21 19 17 15 14 11 9 8 7 5 4 5 8 10 14 16 17 16 14 6 6 4 4 19 10 16 11 5 1 8 6 2 1 2 3 6 3 4 4 7 8 5 8 4 5 6 5
23 21 18 15 15 11 8 8 7 6 7 8 10 12 15 16 14 15 12 6 3 3 2 4 10 13 5 0 3 8 5 1 3 3 3 5 5 1 6 6 8 6 5 2 3 3 4
24 22 19 16 15 11 8 9 9 9 10 10 12 14 16 13 10 9 7 4 6 4 3 3 2 4 4 5 3 5 2 1 3 0 9 4 4 6 6 5 2 2 1 2 3 4 1
26 22 20 17 15 12 9 11 11 12 11 12 13 15 15 13 4 7 2 4 4 4 3 3 2 9 5 2 5 2 5 1 1 2 7 2 4 7 6 0 1 3 1 0 1 3 3
28 23 21 18 16 12 10 13 14 14 13 13 14 16 15 5 7 5 3 4 4 6 2 4 6 5 3 1 3 5 3 1 2 6 6 4 3 4 2 3 2 2 3 7 4 3 3
27 24 21 19 16 12 12 15 16 16 15 13 15 16 13 7 6 3 3 3 5 4 2 5 4 5 5 4 3 3 4 6 4 4 3 5 4 4 3 4 5 8 5 3 4 4 4
27 24 22 19 16 13 13 17 18 18 16 14 16 17 11 7 4 3 3 4 2 4 5 4 5 5 5 3 3 3 3 3 6 4 3 4 2 4 7 3 1 2 5 4 3 2 4
27 25 22 18 16 12 14 19 20 20 19 17 17 14 9 8 4 5 3 3 5 4 6 6 5 5 2 2 4 6 3 2 1 3 5 4 1 1 2 1 3 3 4 4 6 3 3
27 25 22 18 15 12 15 20 23 22 20 18 15 11 10 8 5 4 4 5 3 3 3 5 5 5 5 6 3 4 2 3 0 4 2 2 4 2 1 5 6 5 2 4 4 2 0
27 24 21 18 14 12 16 20 24 23 22 19 15 8 10 8 5 3 3 5 3 7 8 4 2 5 5 6 6 3 2 3 4 3 7 2 4 4 4 2 2 4 3 5 4 3 4
27 24 20 17 13 12 15 21 24 25 24 21 12 2 13 11 4 1 2 4 3 3 5 5 3 4 4 4 4 4 3 2 7 2 3 2 5 3 2 2 1 2 3 4 4 2 1
27 24 20 16 13 12 15 20 24 27 28 22 13 5 11 14 3 2 5 4 2 2 1 2 2 4 4 4 6 3 4 4 10 4 2 2 2 3 6 6 5 2 2 5 6 3 5
26 23 19 16 13 12 14 19 24 28 30 20 9 3 4 7 3 6 2 3 2 4 2 4 3 5 5 5 6 4 3 4 6 4 3 2 3 5 6 4 3 1 2 4 5 3 3
25 22 19 16 13 11 13 19 23 30 31 16 5 4 9 4 4 3 4 4 3 1 2 4 4 3 5 3 3 4 3 2 4 2 3 3 3 1 1 3 1 1 2 1 4 4 5
24 22 18 16 14 12 12 17 23 29 29 14 5 4 8 9 14 7 5 6 8 3 3 0 3 4 5 4 5 7 7 3 4 2 2 3 1 2 3 6 6 3 5 5 4 4 4
24 21 18 16 14 12 11 15 21 25 26 11 6 4 10 1 6 4 4 6 9 10 5 2 14 8 9 4 16 18 10 11 9 6 2 3 4 3 3 4 5 6 5 3 1 2 4
23 21 18 16 14 13 12 15 19 22 23 10 6 4 5 1 4 6 3 3 6 3 8 6 11 7 11 18 16 18 25 21 19 12 5 4 4 3 3 3 1 5 5 4 9 4 8
23 20 18 16 15 13 13 14 17 19 19 12 8 3 4 1 1 2 5 13 19 20 8 10 7 11 19 6 5 5 5 6 4 6 6 4 5 3 3 3 5 4 4 5 5 5 4
22 19 18 16 15 14 13 14 15 17 15 10 10 7 4 10 2 1 7 18 6 4 5 4 15 12 6 6 4 4 4 5 2 2 9 6 6 4 2 4 6 5 2 7 7 5 14
22 20 17 16 15 14 13 13 13 13 12 12 11 9 6 6 5 4 4 7 10 7 4 3 3 4 4 3 3 3 3 4 4 6 4 3 3 4 2 2 7 7 5 7 5 7 17
23 20 17 16 15 14 13 13 12 12 13 13 13 11 8 6 7 5 8 10 11 10 5 9 5 2 4 4 3 4 3 5 2 5 6 7 6 4 3 2 7 12 4 7 6 14 17
23 20 17 15 14 13 12 11 11 12 13 14 14 11 8 5 8 11 13 11 11 9 12 16 5 5 7 4 2 3 2 1 2 3 2 2 7 5 9 6 7 16 8 15 15 17 18

GFSGBSN_850_spd_033.txt.gz
Wind_Speed
22 22 22 22 20 20 16 17 17 17 19 21 21 20 20 18 15 14 13 12 12 11 10 7 5 4 5 6 9 5 4 4 5 6 8 13 13 10 4 5 5 5 4 8 10 11 12
23 22 23 21 20 19 16 17 16 17 19 20 20 19 18 16 14 13 11 11 11 10 8 6 5 5 6 5 2 6 8 7 8 4 7 12 12 12 5 5 5 6 6 8 8 9 7
24 23 22 21 19 18 16 17 16 17 18 18 18 18 15 13 12 11 9 10 10 8 7 6 6 6 8 13 6 5 5 7 5 1 2 0 2 8 9 2 4 12 6 4 2 2 3
25 24 23 21 19 18 16 16 15 16 16 16 17 15 12 11 10 9 9 10 9 8 7 5 6 5 9 6 9 4 2 2 3 1 2 2 3 3 4 14 6 4 5 3 3 4 1
28 25 23 20 19 17 16 15 14 14 14 13 14 12 10 9 9 9 9 10 10 7 5 5 4 3 8 5 7 4 2 2 3 2 3 3 4 6 5 6 4 6 3 2 4 4 2
29 27 23 21 20 18 16 15 13 13 12 12 11 8 8 8 9 10 12 11 8 5 5 5 3 2 8 2 3 5 2 1 1 4 5 6 4 4 4 5 3 3 2 2 5 3 4
31 28 25 22 20 18 15 14 13 11 11 10 8 7 8 10 12 15 15 10 5 3 9 7 4 4 4 7 5 7 4 2 4 5 4 6 6 2 3 2 3 3 1 3 1 3 5
33 29 27 24 21 18 15 14 13 11 10 9 7 8 11 14 17 16 14 5 4 1 4 17 9 11 13 8 4 6 5 2 4 2 3 6 2 1 7 5 6 6 6 2 1 5 7
34 30 28 25 23 19 15 14 13 12 10 9 9 11 14 17 17 16 12 5 1 2 1 4 14 12 8 3 2 6 4 2 2 2 2 4 3 5 6 6 8 5 4 2 3 5 7
35 32 29 27 24 20 16 15 15 13 11 11 12 15 17 16 14 14 8 1 2 4 4 4 3 4 6 6 3 5 4 2 3 2 6 5 5 5 6 6 4 3 1 3 3 4 4
36 33 31 28 25 20 17 17 16 14 14 14 15 17 18 16 8 11 5 1 2 1 3 3 3 4 5 3 5 1 4 2 2 4 6 3 3 5 5 1 2 3 2 2 2 3 4
38 35 32 30 25 21 18 19 17 17 16 16 17 19 19 10 10 10 2 2 4 6 2 2 5 3 4 2 1 4 4 4 6 5 6 3 2 3 2 1 1 1 4 6 4 3 2
40 36 33 30 26 22 20 21 19 19 18 17 19 20 18 12 10 7 3 4 5 4 1 4 4 3 3 2 3 3 4 5 3 5 3 5 3 4 2 2 2 6 5 2 3 3 4
41 38 34 30 26 23 21 21 21 22 20 19 21 22 16 12 10 6 5 5 2 4 5 3 5 3 5 3 4 3 3 3 5 4 3 4 4 4 5 2 3 3 4 4 4 3 3
42 39 35 30 25 22 23 22 22 24 22 20 23 20 15 11 8 6 7 3 5 5 3 6 5 4 2 2 5 5 3 2 0 2 5 4 1 3 2 2 3 1 3 3 6 3 3
42 39 35 29 26 23 24 23 24 26 24 24 24 18 14 11 7 8 5 5 4 4 1 5 4 4 5 5 4 4 1 2 2 4 3 5 4 1 2 2 4 4 4 3 4 2 1
44 40 35 29 26 24 24 24 27 28 26 24 20 10 14 13 10 7 3 6 4 4 2 4 5 4 5 6 4 3 1 3 3 2 5 3 4 4 2 3 1 4 2 6 5 3 4
43 38 33 29 26 23 24 26 29 30 29 25 16 3 16 16 5 2 3 5 3 2 6 4 4 3 6 4 4 3 4 1 4 1 2 2 5 3 1 4 3 2 2 4 4 2 1
40 36 32 29 25 23 24 26 30 32 31 25 13 5 14 13 4 1 3 3 1 2 3 2 2 2 2 5 6 2 3 1 3 3 4 2 2 3 6 6 5 2 3 5 5 3 4
38 34 31 28 24 23 23 26 32 33 32 21 10 3 3 5 4 7 3 2 0 3 3 3 3 5 5 5 6 4 3 2 2 5 5 3 3 5 6 4 3 3 2 3 5 3 3
36 33 30 27 23 22 22 27 32 35 34 17 7 4 8 4 2 4 5 2 4 2 2 3 3 3 5 4 3 4 2 2 4 2 3 4 4 2 3 4 1 2 4 6 6 5 5
34 32 29 26 22 20 22 28 32 36 34 16 8 5 6 7 17 6 3 6 7 2 2 0 5 3 1 6 6 7 6 3 3 3 3 4 1 2 1 5 5 4 6 6 6 4 6
33 30 28 24 20 18 21 27 31 36 34 14 6 4 7 1 5 6 5 6 8 7 4 1 9 5 5 2 6 10 5 9 8 6 3 3 4 3 3 4 5 6 8 9 5 4 6
31 28 26 23 20 18 21 25 29 34 36 16 7 6 5 1 3 7 7 5 6 4 7 4 8 6 13 29 27 24 26 22 20 13 5 5 4 3 2 3 2 6 4 5 4 2 3
29 28 26 22 19 19 21 24 27 31 34 16 11 7 5 2 2 3 8 7 15 15 5 4 2 7 25 6 5 5 5 6 5 7 7 3 5 3 3 3 5 4 4 6 6 7 6
28 27 25 22 19 20 21 24 26 27 28 16 9 6 3 13 2 7 7 12 5 4 4 4 15 26 5 5 4 4 4 4 1 2 6 6 6 4 3 4 6 6 3 7 4 5 17
27 26 23 21 19 19 19 22 25 26 26 20 11 8 5 8 4 11 4 8 10 7 4 4 5 3 3 2 3 3 3 3 4 6 3 2 3 5 2 3 8 7 6 6 5 7 20
26 24 22 20 19 17 17 19 20 22 22 16 12 10 8 7 6 5 9 9 10 9 5 10 5 1 4 4 3 3 3 5 2 4 6 7 6 4 3 1 8 11 5 8 6 6 23
23 22 20 19 18 17 17 17 17 18 18 16 16 11 9 7 10 13 12 8 7 9 13 15 4 6 7 4 1 3 2 2 2 3 2 3 7 5 9 6 4 18 6 20 9 10 21

GFSGBSN_850_spd_036.txt.gz
Wind_Speed
28 27 25 25 26 24 22 21 20 19 19 19 20 21 20 21 20 18 18 17 13 11 8 6 6 5 6 5 7 3 7 3 4 7 10 10 10 7 3 4 4 2 2 5 12 17 21
30 28 27 25 26 24 22 21 20 20 20 19 19 20 19 19 18 17 16 13 11 9 6 6 7 5 6 5 3 3 10 7 7 6 9 12 7 10 4 4 5 6 6 6 11 12 12
32 30 28 26 25 24 22 21 20 20 19 18 18 18 18 17 16 15 13 11 9 6 6 7 6 6 10 11 3 10 8 7 5 5 7 7 13 10 5 4 4 8 4 5 4 4 4
33 32 30 28 26 24 22 21 20 19 18 17 17 16 16 14 14 12 9 8 6 5 7 6 5 6 9 3 8 7 4 4 5 4 6 6 8 9 4 10 6 5 5 3 3 2 2
35 33 31 29 26 24 22 21 20 19 17 16 15 14 14 12 12 9 6 6 6 7 6 4 4 5 7 2 6 4 4 3 2 3 3 4 10 5 4 5 5 6 4 2 2 1 3
37 34 33 30 27 24 23 21 19 18 15 15 14 12 12 10 9 7 8 9 8 6 5 3 4 4 5 1 3 6 4 3 1 2 4 3 4 5 5 5 5 5 3 2 3 2 6
39 35 34 31 28 26 24 21 19 17 15 14 13 11 9 9 10 12 13 10 4 3 10 8 4 3 1 8 2 6 3 2 1 4 3 6 7 3 3 3 3 3 4 2 1 3 7
41 38 35 33 30 27 25 22 19 17 15 13 11 9 9 10 13 16 15 5 3 1 5 17 13 11 15 10 3 5 3 1 3 2 1 6 4 3 4 5 6 5 6 3 2 6 7
44 40 37 34 31 30 26 23 19 17 15 13 11 9 10 13 15 16 15 4 3 5 3 4 12 8 3 3 3 5 4 3 3 3 5 6 0 3 4 5 9 4 5 2 3 3 6
47 43 39 35 33 31 28 24 20 17 15 14 12 13 15 16 14 15 12 3 2 2 4 4 4 2 4 3 2 5 5 2 4 4 5 5 3 4 6 6 3 3 0 3 4 3 3
49 47 42 36 34 32 29 25 21 18 16 16 15 17 19 19 7 16 4 4 3 2 3 3 3 1 4 4 6 2 3 2 4 4 4 1 2 5 7 1 3 1 5 5 4 5 4
49 50 43 38 35 33 30 25 23 19 19 19 19 19 20 16 12 13 6 4 4 6 3 2 5 4 4 2 2 2 3 6 6 6 6 3 3 3 2 3 3 4 5 8 5 3 2
48 50 43 39 36 34 30 26 23 20 21 21 21 22 23 14 11 12 6 6 5 4 2 3 4 3 3 2 4 4 5 5 4 5 4 6 4 5 3 3 3 6 5 3 3 3 4
37 52 45 39 37 34 31 27 24 22 23 22 22 23 23 16 14 10 8 4 2 3 5 1 4 3 4 3 4 4 3 3 5 4 3 4 4 3 5 2 4 3 5 4 4 3 3
31 55 47 42 39 34 31 26 23 24 25 24 23 24 21 16 14 11 5 4 6 6 3 6 4 5 1 2 5 4 3 2 1 1 5 4 0 2 2 2 3 2 3 4 6 1 3
40 56 49 43 40 36 31 27 24 26 27 26 25 24 17 17 15 11 4 5 3 4 1 4 4 4 4 4 4 4 1 2 2 3 2 5 4 2 2 3 6 2 5 3 3 2 3
42 55 48 44 41 36 32 28 27 29 28 26 26 10 17 17 14 7 4 5 4 8 5 4 5 4 4 4 3 2 2 1 1 2 4 3 4 4 1 3 3 2 2 6 4 3 4
49 53 45 45 39 36 32 30 31 32 31 31 19 3 18 19 4 2 4 5 2 4 2 3 4 3 5 3 4 3 4 2 2 1 3 1 5 2 2 2 2 2 3 4 4 3 1
59 45 45 44 38 36 32 32 34 35 35 30 12 6 15 18 4 1 3 1 2 2 3 2 3 3 3 4 5 2 3 1 1 2 6 5 2 3 6 5 4 2 3 4 5 3 5
54 49 46 41 37 35 33 34 36 38 36 25 13 3 4 6 4 7 5 3 2 2 3 5 4 5 5 4 5 5 3 1 1 3 5 4 3 5 7 4 3 4 4 4 5 3 4
50 47 43 39 36 33 33 35 39 40 37 20 8 3 8 3 1 3 5 6 4 2 3 4 4 3 4 4 3 3 2 2 4 3 3 3 4 2 2 3 2 2 4 6 7 5 6
45 44 41 36 34 32 33 36 40 41 38 18 8 6 5 4 16 6 3 6 6 3 3 2 6 2 2 6 6 8 6 4 4 3 3 3 2 1 2 3 5 3 6 7 5 3 7
44 41 36 33 32 31 33 38 42 42 39 16 8 10 12 1 4 5 6 6 7 7 3 3 6 5 3 1 4 12 7 11 7 5 3 3 5 3 4 4 5 6 9 9 5 5 7
41 38 33 30 30 30 33 37 41 42 39 18 11 12 6 2 3 6 8 4 5 3 7 3 6 5 10 28 27 22 24 22 20 12 5 5 4 3 2 3 2 6 2 5 8 5 7
36 33 31 29 27 28 32 36 39 41 38 20 11 7 5 2 3 3 7 6 13 9 5 4 3 8 23 6 5 5 5 6 5 6 7 4 5 3 3 3 6 5 5 6 7 7 8
36 31 28 26 26 27 31 35 37 39 39 23 11 9 4 13 5 7 6 7 5 4 3 4 8 28 2 5 4 4 4 4 2 1 5 5 6 4 3 4 6 6 3 4 4 5 7
32 30 27 24 24 28 31 32 34 37 39 23 10 9 5 7 6 12 4 8 9 6 4 5 9 3 2 3 3 3 3 2 4 5 3 3 3 4 2 3 8 7 3 4 5 7 8
30 28 25 23 23 27 28 29 32 33 34 21 11 10 6 7 7 6 9 10 11 9 5 11 6 1 4 4 3 3 3 5 2 4 6 7 6 4 3 2 7 8 4 7 6 7 9
28 27 25 22 23 25 24 27 29 30 30 22 7 9 11 8 11 15 12 9 7 8 13 18 5 6 7 5 1 3 2 1 2 3 2 2 6 5 8 6 5 13 7 15 6 6 9

GFSGBSN_850_spd_039.txt.gz
Wind_Speed
29 28 26 25 23 23 24 23 21 20 19 21 20 20 21 21 19 20 18 16 15 12 10 8 6 7 6 6 9 1 5 3 4 12 16 14 13 8 4 5 5 5 3 7 17 15 10
31 30 28 27 25 24 23 22 21 20 19 20 20 20 20 19 18 19 16 14 12 9 7 7 6 7 6 5 5 2 8 8 4 8 13 16 8 13 3 4 3 5 6 9 12 16 15
33 31 30 29 27 26 23 21 21 20 19 20 18 19 20 18 17 17 14 11 9 6 6 6 7 7 10 13 4 6 8 9 6 5 8 12 15 5 2 1 5 7 8 6 7 8 4
35 34 31 30 29 27 24 21 21 20 20 19 17 18 18 17 16 13 11 9 6 5 6 6 6 7 9 4 8 8 7 6 5 4 5 8 5 9 4 2 3 4 4 5 2 4 3
40 37 33 32 30 27 25 23 22 20 20 18 16 16 16 15 13 9 7 7 6 6 6 5 5 6 8 5 7 4 4 3 4 2 1 5 9 4 4 4 3 7 3 3 4 5 4
33 39 36 33 32 28 26 24 22 21 19 17 15 15 14 13 10 7 7 7 7 6 5 4 6 3 6 1 5 5 3 3 1 1 4 3 3 3 2 3 4 3 4 1 4 2 10
39 39 37 36 33 29 27 25 23 22 19 16 15 13 12 11 8 9 10 10 5 3 11 8 3 3 2 6 7 6 2 1 3 2 2 3 3 3 2 2 3 4 3 4 3 4 6
42 38 40 38 35 31 28 26 24 22 19 17 14 11 12 10 10 13 16 8 5 1 5 17 14 13 13 9 3 4 3 2 2 2 2 4 3 2 5 5 5 4 6 3 3 3 4
40 38 41 39 37 32 29 27 26 23 19 17 14 11 12 10 13 16 19 7 3 5 2 4 13 9 3 5 2 4 5 5 3 2 2 5 1 3 3 4 8 5 6 3 4 4 6
45 36 38 40 39 34 31 28 27 24 20 17 14 13 14 13 15 17 17 6 4 2 3 2 4 4 6 5 1 4 6 3 3 4 3 5 3 4 3 3 2 4 2 4 6 2 2
44 40 33 39 40 36 32 30 29 25 22 19 16 16 16 18 8 19 7 8 5 3 3 3 4 5 6 5 5 2 4 4 5 4 3 1 2 4 3 0 2 4 3 4 3 4 2
38 50 39 38 42 38 34 30 30 26 23 19 18 18 19 24 14 17 8 5 5 5 3 3 6 5 4 2 1 2 3 6 6 5 5 3 2 3 2 3 4 8 5 5 3 2 1
37 41 47 35 43 39 35 32 30 28 24 21 21 21 23 26 12 16 9 7 3 4 2 3 3 4 3 2 3 3 3 4 3 4 3 4 3 3 3 4 3 4 4 2 1 1 3
36 36 49 36 44 41 37 33 31 29 24 22 22 23 27 27 12 14 10 2 3 3 5 1 3 4 5 4 2 3 3 2 4 5 3 3 0 3 4 2 4 2 3 4 4 3 1
36 35 39 41 44 42 37 35 32 28 24 22 23 24 27 27 15 11 8 2 6 6 3 6 3 5 2 1 4 3 2 2 1 1 4 4 1 1 3 1 1 4 2 2 6 2 1
37 33 41 40 43 42 38 37 32 28 25 24 23 23 28 24 17 14 3 5 4 5 3 2 4 3 4 3 3 3 1 1 2 2 1 4 3 1 1 1 7 1 7 3 2 3 3
36 33 37 50 34 45 39 39 35 30 27 25 22 10 19 20 18 9 4 6 5 6 7 6 5 4 3 5 3 2 3 1 1 2 4 3 3 2 1 0 5 2 2 5 4 1 2
37 35 38 58 33 42 40 42 36 32 31 31 21 3 20 24 5 1 4 5 4 3 4 5 4 3 5 3 3 3 5 2 2 2 4 1 4 3 2 0 1 1 3 4 3 4 1
37 35 46 55 32 48 44 42 37 35 38 37 16 5 22 24 4 1 2 3 3 1 2 4 3 3 2 4 4 2 3 1 3 3 6 5 1 3 2 2 1 3 3 4 5 2 5
36 34 43 44 35 48 45 42 37 38 40 36 17 3 7 10 4 8 5 4 3 2 1 4 5 4 4 3 4 5 3 1 2 3 6 4 3 4 6 3 2 4 4 4 4 3 4
33 36 43 38 47 48 45 41 38 41 43 35 11 4 9 4 2 4 4 6 5 2 1 2 4 3 5 4 2 3 2 2 3 5 3 3 4 2 1 1 1 2 4 9 8 4 7
34 33 47 47 50 46 45 40 39 45 46 31 11 6 6 5 17 6 0 6 6 3 1 1 7 3 3 6 6 8 6 4 4 2 2 2 3 2 3 1 3 4 5 6 7 4 11
38 42 44 48 46 45 44 38 41 48 48 23 10 13 17 1 3 6 5 6 7 8 3 4 8 5 4 2 4 8 7 11 7 5 3 2 5 3 3 3 3 5 9 13 6 6 8
34 49 45 43 44 43 38 37 43 48 47 23 16 18 8 2 3 6 7 4 7 4 7 3 7 5 7 26 28 23 25 22 18 12 4 5 4 2 2 2 1 4 2 2 10 7 12
52 44 42 41 39 37 34 37 43 47 42 22 18 13 8 3 3 3 7 5 12 10 5 4 3 10 27 6 4 4 4 5 5 7 7 3 4 3 2 3 5 5 2 5 6 5 11
41 38 37 36 35 33 33 37 44 47 39 24 18 14 8 13 6 9 6 8 5 4 3 4 7 27 4 4 3 4 3 3 1 1 4 5 5 3 3 2 5 5 2 4 4 4 1
36 35 33 32 30 31 33 38 45 47 35 23 14 11 8 7 9 14 5 9 8 6 4 6 9 5 2 2 3 3 3 1 3 5 2 2 3 3 2 3 7 6 2 3 3 4 4
33 30 28 27 28 30 33 39 44 47 39 26 14 11 8 7 11 8 9 12 10 10 5 11 6 1 3 3 3 3 3 4 2 3 5 5 6 3 3 1 6 7 4 4 3 4 5
29 27 24 23 24 28 34 39 41 44 42 26 12 12 11 7 10 14 11 11 9 11 15 21 6 6 8 4 1 3 2 2 2 3 0 3 5 4 8 5 4 11 8 10 8 8 6

GFSGBSN_850_spd_042.txt.gz
Wind_Speed
30 28 26 25 23 23 21 20 19 20 19 19 20 19 18 19 19 20 20 19 15 14 11 8 8 9 7 6 10 5 2 4 7 14 14 12 11 10 10 10 7 12 4 6 13 22 16
32 31 28 26 25 24 23 21 19 19 19 19 19 18 17 17 18 18 18 16 12 11 8 6 8 9 7 8 7 5 3 7 3 12 14 15 6 12 4 4 10 6 5 8 8 12 7
30 32 30 29 27 25 24 22 19 19 19 20 19 17 16 16 17 17 17 13 10 8 7 6 8 7 11 14 3 5 9 11 7 8 11 14 14 8 3 2 4 14 10 6 9 14 8
40 34 31 31 29 27 25 23 21 19 19 20 18 16 15 15 15 15 13 10 8 7 6 7 6 6 9 5 9 9 9 6 3 7 11 5 9 11 5 2 6 7 14 9 9 15 5
42 40 31 32 31 29 27 24 22 20 20 19 17 16 14 14 13 13 10 8 6 5 5 7 5 5 9 5 7 6 4 3 3 3 9 5 10 6 6 10 9 9 9 11 8 2 8
48 39 37 31 33 30 29 25 23 21 21 19 17 15 14 12 12 10 6 5 4 4 6 6 8 5 6 2 4 5 3 2 2 6 3 4 7 5 6 9 8 7 8 9 10 5 10
33 44 39 35 32 32 30 27 24 22 21 19 16 15 13 11 10 7 6 5 2 3 11 9 3 5 2 5 7 5 3 2 2 6 10 9 7 6 13 4 4 4 6 12 8 4 7
33 35 44 38 33 33 31 29 26 22 22 19 17 14 13 11 9 8 11 7 5 1 7 17 18 14 13 10 4 6 4 4 1 1 3 6 3 5 5 4 3 5 7 7 5 4 5
36 34 40 41 41 32 32 29 27 24 22 20 17 14 13 11 9 12 17 18 4 4 6 4 11 9 5 6 4 8 3 3 3 2 4 5 6 5 7 8 7 4 3 10 5 7 2
36 35 36 42 41 38 33 30 27 25 22 20 17 15 13 10 8 14 18 14 7 4 4 7 6 6 6 4 5 3 4 2 1 6 3 4 3 4 6 6 3 5 2 5 11 10 7
38 35 35 38 36 40 37 32 28 26 23 21 18 16 15 13 7 13 8 12 5 4 5 10 7 6 7 6 4 3 6 3 6 4 3 4 5 5 4 3 1 4 4 4 3 4 5
39 39 37 38 41 38 35 34 29 26 24 23 19 18 17 18 19 14 8 8 7 5 5 8 8 9 9 5 3 4 3 4 5 2 2 5 3 2 3 6 2 10 8 6 2 3 8
41 38 38 38 43 40 37 36 30 27 26 24 20 20 21 21 14 13 10 9 6 6 3 7 10 11 12 6 6 5 8 9 7 9 9 6 3 4 3 9 6 6 6 3 3 4 6
43 39 39 36 37 46 38 40 31 28 28 25 21 22 23 27 17 12 14 7 9 6 8 2 7 13 12 9 5 4 8 8 3 6 9 9 7 5 1 3 2 2 3 3 4 3 1
42 40 37 38 35 48 36 41 33 30 29 25 22 23 25 29 26 11 11 11 8 6 7 9 10 15 8 7 4 7 5 7 3 4 7 6 4 4 3 2 3 5 4 3 2 1 3
41 38 38 37 33 36 37 42 35 32 31 26 24 23 28 27 27 11 7 14 9 4 5 10 13 13 14 13 9 9 9 4 4 2 3 4 4 2 5 2 7 4 9 3 3 3 4
35 35 37 36 33 33 41 44 38 36 32 27 20 13 16 25 18 14 10 14 7 7 7 11 13 8 12 9 9 10 9 4 4 4 1 5 3 6 4 7 6 4 4 1 0 2 2
34 34 36 34 34 32 45 44 42 40 34 31 20 9 19 22 12 13 12 12 6 8 7 7 7 7 12 11 8 9 10 3 5 5 5 2 1 4 5 3 1 2 5 8 4 4 1
36 35 35 34 33 34 38 36 47 42 40 39 19 9 20 30 11 8 9 7 7 6 8 8 8 5 6 10 5 5 6 2 3 5 6 6 3 4 4 4 4 7 9 5 4 1 6
37 35 36 35 33 37 50 32 44 41 41 30 25 7 9 15 17 16 13 15 8 3 5 5 5 4 8 6 1 7 7 3 3 2 3 4 3 7 10 2 0 6 11 11 11 4 5
37 37 35 34 33 38 46 38 43 41 41 31 19 10 16 12 16 12 16 14 14 6 4 8 5 8 8 5 6 6 6 5 4 6 3 3 6 4 2 0 3 4 8 13 15 14 8
35 37 35 33 35 37 46 34 43 41 42 36 15 10 14 26 23 13 12 12 17 6 6 7 8 10 7 6 8 10 10 7 5 7 5 2 3 3 3 2 2 7 8 10 15 16 15
38 37 33 35 36 44 38 38 44 45 53 22 16 16 27 9 14 12 11 12 14 11 1 3 11 9 6 4 5 8 7 8 6 7 6 4 5 4 2 2 3 6 15 18 13 12 15
36 34 32 36 46 46 41 42 46 47 58 21 18 19 16 7 12 13 12 10 12 9 7 5 4 4 6 20 22 18 18 15 11 10 3 6 5 1 1 2 3 1 1 3 12 16 15
34 36 33 45 51 38 39 44 45 47 56 30 15 17 13 4 16 11 13 7 11 7 5 7 4 5 22 5 4 4 2 2 5 7 5 1 4 3 2 4 6 12 3 3 3 6 4
33 31 38 53 35 37 42 43 45 48 50 25 17 15 18 12 10 19 13 14 7 6 5 5 9 20 5 2 2 4 4 4 5 4 3 5 3 2 3 3 4 3 4 1 2 5 3
31 37 38 34 38 40 41 42 44 51 51 22 17 15 16 7 8 14 15 13 8 6 5 8 11 3 2 2 2 2 3 1 5 5 4 2 1 4 3 4 6 1 1 3 2 3 1
40 40 35 36 37 39 39 41 45 52 48 23 22 18 15 7 10 10 11 10 9 10 6 12 7 2 2 2 2 3 2 4 3 2 4 5 6 3 3 3 4 6 6 3 4 4 3
33 34 36 36 37 37 38 42 47 53 33 23 22 17 13 10 7 11 12 15 17 14 11 18 1 8 8 3 1 3 3 1 1 3 3 3 3 1 6 1 3 7 7 3 5 9 9

GFSGBSN_850_spd_045.txt.gz
Wind_Speed
32 31 29 25 24 21 20 20 19 18 17 18 18 19 18 19 19 20 19 19 19 18 16 13 10 9 7 8 13 7 4 2 7 13 12 10 11 12 11 12 10 11 9 3 9 9 11
37 33 32 29 25 23 22 21 19 18 17 17 18 18 18 18 18 19 19 18 17 16 14 11 9 7 5 14 3 5 5 3 4 13 13 13 10 12 11 6 9 9 6 5 7 9 15
42 37 31 28 29 26 24 22 20 19 18 17 18 17 17 17 17 18 17 17 15 13 11 9 7 6 11 18 3 3 7 4 6 12 13 12 12 7 4 7 1 9 16 4 9 15 10
37 41 36 31 29 28 26 24 22 20 19 18 18 17 16 16 17 16 16 14 12 11 8 7 5 4 10 5 8 12 11 12 9 10 11 4 10 11 9 4 6 7 10 14 14 15 17
26 39 41 34 32 29 27 25 24 22 20 19 18 17 16 16 16 15 14 11 10 9 6 5 3 3 9 6 8 6 8 6 3 6 8 5 8 9 6 10 11 11 9 13 9 16 9
25 27 40 42 37 34 27 27 24 22 21 19 18 16 15 16 14 13 10 7 7 6 5 6 8 7 8 7 5 7 4 6 4 6 6 7 9 9 9 10 10 13 16 15 14 13 12
30 28 27 41 41 40 31 28 25 22 21 20 18 16 15 15 13 10 6 3 3 5 12 13 3 12 4 6 9 10 6 6 7 6 6 12 7 9 16 18 7 11 10 10 14 9 13
35 31 31 31 40 40 36 28 28 23 21 20 18 16 15 13 13 10 10 9 6 5 10 20 18 13 16 10 8 12 7 8 11 10 12 14 7 12 9 9 7 7 4 7 8 9 7
40 35 33 31 30 40 37 31 29 25 21 21 19 16 15 13 12 13 15 13 3 9 8 11 16 14 10 8 12 16 10 8 8 9 17 9 5 4 6 8 7 3 8 4 9 10 13
40 36 34 32 31 35 40 35 28 26 22 21 19 17 14 10 9 9 12 11 10 7 6 12 12 10 10 8 9 12 10 8 5 11 12 6 20 8 7 5 6 8 1 2 4 12 13
41 39 39 35 32 30 39 40 29 27 24 21 20 18 15 12 7 8 0 5 4 2 5 15 16 8 12 14 2 13 10 11 14 9 9 8 9 7 9 5 6 9 3 4 6 11 9
45 42 38 38 33 31 35 39 34 28 26 23 21 19 17 17 21 13 3 4 5 6 7 8 12 14 13 14 8 5 14 12 3 7 11 5 6 2 9 2 3 4 4 6 8 10 9
49 46 41 37 36 34 35 36 31 31 28 25 23 21 20 14 8 8 8 7 6 9 7 11 17 18 17 10 10 10 13 14 11 10 10 13 8 4 5 6 3 7 7 8 5 4 8
50 46 42 39 36 34 34 36 32 34 30 26 22 22 21 22 14 9 10 8 12 11 13 6 15 16 16 13 12 12 12 16 18 14 11 11 8 11 7 10 5 8 10 5 6 7 7
50 48 43 41 38 36 34 36 33 36 33 27 22 21 21 27 23 13 16 13 14 6 13 9 11 15 17 13 7 12 15 15 15 15 9 16 5 7 1 3 5 6 7 5 3 0 5
43 49 46 41 38 37 35 34 35 38 34 28 23 17 22 21 25 12 11 19 20 6 5 11 15 16 16 15 11 13 14 13 6 4 8 3 3 4 6 6 6 8 3 4 4 3 6
35 47 45 41 40 36 36 33 39 38 37 28 22 13 16 24 26 16 13 18 18 8 10 14 17 15 15 15 15 15 12 6 7 9 8 7 8 7 5 10 11 7 8 6 4 2 4
30 48 45 41 38 38 36 34 41 40 37 32 27 11 23 29 17 17 15 20 25 15 11 11 9 13 14 13 12 11 16 11 11 8 11 5 4 7 11 3 5 9 8 9 6 6 3
50 46 44 40 39 37 37 35 42 42 42 37 25 17 24 33 14 14 19 21 24 17 12 13 11 13 12 11 11 12 11 6 6 8 6 6 7 9 7 6 6 8 10 8 7 1 9
41 45 43 39 37 36 37 35 39 44 43 41 24 10 10 22 33 23 23 21 19 21 13 15 15 14 10 12 11 10 9 4 6 6 0 1 12 10 10 8 5 12 12 12 12 8 10
31 43 40 41 38 36 36 34 39 43 46 44 17 16 19 15 22 23 24 18 22 18 13 15 12 15 14 11 14 8 10 7 7 6 6 5 9 13 14 6 8 8 9 10 15 17 15
37 37 40 37 37 38 37 36 36 42 50 47 13 20 28 23 35 22 22 23 24 20 16 15 16 19 16 10 11 11 12 10 8 9 8 5 6 4 5 7 9 11 13 13 14 17 18
39 37 37 37 36 37 35 37 48 42 51 30 26 17 28 23 24 19 19 24 21 20 5 10 20 17 12 2 7 9 6 2 4 8 10 6 4 4 7 3 5 6 15 18 17 17 14
42 37 35 35 36 38 36 38 48 45 50 34 24 11 19 15 19 21 24 24 19 11 11 6 14 11 6 16 18 16 14 10 7 5 4 5 7 1 1 1 1 2 2 5 7 12 14
44 36 35 37 37 37 37 36 48 52 49 44 26 9 13 4 23 23 25 24 18 10 12 14 4 6 22 10 4 5 2 3 3 3 3 4 5 3 3 6 9 12 5 2 2 5 6
38 36 36 36 37 38 44 37 48 41 53 47 21 9 5 11 17 34 20 28 11 11 7 6 14 13 6 3 2 5 5 7 6 7 3 3 3 4 3 3 4 3 4 2 1 5 8
38 35 36 37 40 42 39 47 42 47 55 55 27 7 5 16 18 26 18 18 22 15 6 8 9 5 3 2 2 3 5 3 6 5 5 3 2 6 5 3 6 4 3 2 5 3 7
35 36 39 41 39 44 43 38 41 51 47 51 40 10 9 8 12 12 17 24 15 22 7 14 8 3 4 3 3 3 1 4 2 3 6 7 7 3 3 3 5 7 6 1 5 6 5
34 40 33 35 46 39 36 43 44 45 44 44 33 11 8 6 8 10 15 16 17 12 15 19 4 13 10 5 1 3 2 1 1 3 4 4 4 2 6 1 5 5 4 3 7 9 10

GFSGBSN_850_spd_048.txt.gz
Wind_Speed
37 34 29 27 26 23 20 19 18 17 17 17 16 17 18 18 18 19 20 22 22 23 19 17 15 13 10 9 15 7 7 3 3 10 9 9 9 10 13 14 13 14 8 13 4 18 3
28 38 35 30 30 26 23 20 20 18 17 17 17 17 17 17 18 19 20 21 21 20 17 15 13 11 8 12 3 4 3 3 2 9 9 10 9 10 14 15 10 3 4 8 11 6 3
22 25 37 36 31 30 28 23 21 20 18 17 17 17 17 16 17 18 19 19 20 18 15 12 11 9 11 21 6 1 5 5 4 8 10 12 10 9 3 11 6 12 12 8 2 4 2
24 24 24 35 36 31 28 28 24 21 19 18 17 17 16 16 17 17 18 18 18 15 12 9 8 7 10 7 9 15 9 12 10 8 10 9 6 12 10 10 4 4 7 3 2 10 12
28 26 24 24 35 34 29 27 26 23 20 18 18 17 15 16 16 16 16 16 15 12 9 7 4 5 11 6 11 12 11 12 4 4 6 6 4 7 9 7 1 3 8 15 9 16 6
32 29 26 25 27 36 33 29 25 24 21 19 18 16 15 15 15 15 14 14 12 10 7 9 7 10 12 10 7 9 6 5 6 5 4 5 6 7 6 7 8 13 14 12 9 11 13
37 33 29 27 26 31 37 33 30 23 22 19 18 16 15 14 14 13 12 8 9 3 12 13 8 9 4 3 6 10 12 7 9 9 5 7 6 9 12 14 11 6 7 13 13 10 12
38 37 33 31 27 26 35 37 34 27 24 20 18 16 14 14 13 12 10 7 6 8 12 19 21 20 16 9 8 14 13 10 13 8 2 9 10 6 9 15 18 13 6 9 11 10 10
36 36 35 34 32 28 28 36 37 31 23 21 19 16 14 13 13 13 14 16 8 15 8 18 23 21 15 15 16 15 12 15 5 4 8 7 8 24 19 22 17 11 8 9 11 7 9
39 37 36 35 34 32 29 32 38 32 24 23 20 16 14 10 9 8 11 9 7 6 5 10 16 15 16 11 15 20 21 15 7 5 12 5 17 21 22 5 7 5 9 10 15 11 9
44 41 38 35 33 33 31 29 35 32 26 24 21 17 14 12 8 6 3 3 3 4 4 11 16 8 17 17 7 16 8 13 12 4 11 15 11 20 18 4 3 4 15 17 11 9 4
47 44 41 37 34 35 30 29 34 36 27 26 23 19 16 17 18 13 4 6 5 5 7 6 11 12 20 18 14 9 16 13 9 10 13 13 17 26 2 3 0 14 13 12 9 9 6
50 48 43 42 39 35 34 32 32 35 31 26 24 21 21 14 8 7 9 3 5 7 5 10 16 15 16 14 15 10 12 17 12 9 8 0 12 4 8 8 5 7 8 3 5 6 5
50 50 46 44 42 37 33 34 32 34 31 28 26 22 23 24 14 4 9 7 11 12 21 2 14 15 19 16 14 12 14 15 18 17 10 9 10 11 9 5 4 17 1 2 3 3 6
49 53 50 43 45 41 34 34 33 32 32 29 27 24 25 26 20 11 16 12 11 10 17 10 12 16 17 18 9 14 15 16 16 17 15 1 2 10 16 3 11 11 4 3 6 3 2
52 51 50 44 46 42 37 36 33 35 35 31 29 18 27 25 24 14 11 19 16 24 12 10 15 15 15 17 13 11 13 13 17 17 10 6 6 16 21 5 5 6 6 3 2 2 4
51 50 51 41 48 42 40 36 35 38 35 30 25 12 13 22 23 17 14 18 22 25 19 11 14 14 16 14 14 12 9 10 16 8 3 7 13 11 8 8 8 5 7 6 8 4 1
48 47 48 42 46 44 41 38 37 39 37 33 22 8 23 35 16 16 15 21 29 25 14 11 15 15 13 14 14 16 15 13 12 8 8 12 5 4 10 2 5 10 11 8 3 6 3
46 46 48 40 45 45 42 38 40 40 43 41 19 17 31 36 12 13 17 24 28 23 19 15 15 12 13 14 12 14 9 5 7 7 3 4 4 5 9 7 8 8 12 9 8 2 5
47 44 47 52 40 46 44 41 41 41 48 37 17 8 12 30 25 22 23 21 25 30 20 17 14 16 13 13 9 9 9 4 3 1 3 5 5 9 6 11 4 6 10 11 10 3 4
46 46 45 55 39 47 44 43 43 41 51 36 16 12 14 10 18 17 20 20 26 25 24 19 17 17 13 10 11 11 11 6 4 2 2 3 8 12 14 14 12 8 13 7 10 10 10
40 38 44 49 40 47 46 44 44 42 49 39 15 11 25 9 27 22 21 26 26 26 19 21 14 18 16 12 13 10 11 8 7 7 8 5 6 5 8 10 13 10 14 15 14 15 15
39 40 38 39 46 45 43 45 45 44 46 26 36 25 14 20 21 20 23 24 26 23 22 28 17 14 15 9 6 9 6 18 8 11 10 7 3 2 2 6 7 5 10 15 16 15 11
37 33 34 41 46 46 45 45 44 40 50 32 38 14 8 10 18 24 24 24 26 22 18 16 12 18 9 18 17 17 14 10 6 3 10 6 5 2 1 1 1 9 3 5 5 8 9
39 38 37 45 43 43 43 41 42 41 52 39 38 18 8 6 19 24 28 21 26 25 10 13 8 9 25 13 5 4 2 3 1 4 4 4 5 2 2 4 7 12 2 2 1 3 11
39 34 41 40 39 39 38 40 44 46 54 51 36 25 14 5 17 39 27 27 14 9 4 1 10 20 12 3 3 4 4 6 7 7 1 2 5 3 3 3 5 1 6 3 2 2 8
43 41 36 35 35 37 37 39 39 40 51 44 41 34 17 6 21 40 21 19 33 12 4 10 4 6 4 3 2 2 3 4 5 6 4 2 1 4 3 2 5 3 6 1 3 3 7
44 40 36 35 34 36 37 39 40 35 47 51 55 40 20 7 26 37 32 21 24 24 7 11 9 3 4 3 3 2 2 3 2 8 7 7 6 3 2 2 6 7 6 2 5 6 9
41 39 36 33 33 38 39 36 38 36 44 40 39 50 32 27 11 18 15 17 12 9 23 26 5 12 8 4 2 3 2 2 2 3 10 4 5 4 7 4 6 7 10 7 6 7 9

GFSGBSN_850_spd_051.txt.gz
Wind_Speed
24 32 35 32 28 25 25 22 19 17 16 16 16 16 16 16 17 17 18 18 20 21 21 20 17 15 11 7 12 4 6 6 2 6 7 9 14 16 7 7 16 6 8 2 19 15 21
22 21 25 33 32 29 26 25 23 19 17 17 16 16 16 16 17 17 17 17 19 20 19 17 15 12 8 7 1 5 7 4 1 4 4 9 10 15 11 12 6 14 18 13 19 18 14
25 23 22 22 31 33 30 27 26 22 19 18 17 17 16 16 16 16 16 17 18 19 16 14 12 11 12 19 7 3 6 6 8 7 3 10 14 18 15 7 16 11 7 5 4 16 4
28 26 24 22 21 30 33 30 27 26 20 19 17 17 17 16 16 16 16 16 17 17 13 11 9 9 11 4 8 12 6 10 12 11 11 13 14 10 5 11 9 3 5 4 4 15 6
33 29 27 25 22 22 30 32 29 26 25 20 18 17 17 16 15 15 15 16 16 14 11 10 6 7 13 4 12 11 12 13 10 5 6 7 4 4 6 2 4 3 4 4 1 27 9
37 34 31 28 25 23 21 30 30 26 21 21 19 17 16 15 14 14 14 15 14 13 9 10 8 9 9 6 4 8 11 9 6 5 3 4 3 1 3 2 3 3 3 5 7 12 20
38 38 36 32 29 26 22 24 31 28 23 21 21 17 16 15 13 13 13 11 8 3 8 11 6 11 16 11 6 4 7 13 9 8 3 6 3 2 3 2 8 8 13 10 7 9 10
36 36 38 36 32 29 25 23 27 32 27 22 20 17 15 14 13 12 12 8 3 9 12 19 24 30 26 18 10 11 16 15 11 5 4 3 3 4 11 10 11 9 12 1 8 5 7
37 35 35 37 34 32 29 25 23 28 30 26 20 17 15 13 12 12 13 15 10 9 6 15 21 23 22 11 13 20 16 18 4 4 1 4 3 4 8 13 15 7 4 2 3 4 2
41 41 36 35 34 33 31 28 26 25 29 26 21 18 15 11 10 4 5 7 3 1 3 7 8 11 14 15 9 19 19 13 4 6 4 3 6 3 9 16 19 8 13 2 0 3 2
45 44 41 37 34 34 33 31 28 26 28 26 23 20 16 12 7 9 1 5 4 4 4 6 11 6 14 16 2 9 20 24 7 6 4 3 5 0 6 14 11 7 11 6 5 2 4
46 44 45 40 38 35 33 31 30 28 27 29 23 22 18 18 18 7 5 4 8 1 7 4 11 8 9 18 13 9 15 4 10 7 8 8 4 5 5 7 8 3 2 4 5 3 2
50 44 43 44 41 38 34 31 30 31 28 31 27 25 24 17 13 5 8 6 1 4 6 8 11 10 9 6 8 8 7 5 4 3 3 3 8 3 5 10 6 6 4 3 5 6 4
50 51 48 46 43 40 37 34 33 31 28 32 29 26 26 24 17 7 9 3 8 11 10 5 10 8 9 6 9 11 5 6 8 7 3 6 3 2 5 4 4 5 3 4 4 1 5
47 47 51 47 47 43 40 38 33 34 29 32 28 28 29 27 22 10 8 9 8 6 8 4 9 10 8 11 6 9 8 7 9 12 6 4 3 4 7 5 4 1 4 6 5 2 3
42 48 46 47 47 46 42 40 34 36 31 32 31 31 37 26 25 16 7 13 6 15 9 8 8 8 8 11 10 6 8 8 8 12 9 2 4 3 7 6 9 5 4 2 3 2 3
54 45 42 49 42 48 45 41 37 36 35 36 30 15 27 28 25 16 12 15 15 29 17 5 4 5 8 7 11 7 6 7 8 4 11 6 4 2 6 2 11 2 3 2 4 5 5
56 48 45 51 42 49 48 43 40 39 37 36 27 6 20 35 13 8 13 11 15 23 22 10 5 1 1 8 5 7 5 8 7 11 5 8 5 4 14 20 14 6 6 6 5 5 3
60 55 52 50 50 45 50 47 43 44 45 43 21 16 29 38 11 12 9 14 24 17 16 6 4 3 3 4 5 8 8 7 5 5 6 2 2 3 1 4 3 3 5 4 3 4 4
56 54 52 51 48 51 52 49 46 48 49 39 18 7 15 31 21 19 15 15 21 27 21 25 11 9 5 5 5 5 3 1 7 5 5 6 0 5 6 6 4 4 5 6 4 4 4
51 53 54 52 46 50 53 51 50 50 50 39 20 12 14 11 18 11 17 12 18 15 21 18 12 8 8 5 5 0 4 3 3 2 2 4 4 1 4 5 5 4 1 5 4 5 6
45 46 49 51 52 43 42 47 50 52 49 40 16 12 22 5 23 17 14 22 25 22 13 19 15 10 9 7 8 7 5 5 5 1 3 1 3 3 1 5 7 4 6 6 6 6 5
42 44 44 43 43 48 51 40 52 52 52 33 29 24 26 16 14 17 20 17 21 19 20 28 12 7 7 9 9 6 4 19 12 9 7 6 4 3 2 4 6 6 7 5 6 4 3
44 44 40 42 42 40 46 41 52 53 59 29 30 17 8 5 13 16 22 20 23 24 17 15 27 8 10 23 21 17 19 16 13 5 8 6 5 3 3 3 1 8 2 5 5 5 8
43 41 39 36 37 34 43 45 52 55 53 51 28 14 7 2 14 16 23 20 25 30 17 15 16 7 24 11 4 4 5 6 2 4 3 4 5 2 4 4 5 8 2 3 4 4 5
38 37 37 38 35 37 47 51 49 51 48 45 31 9 6 2 10 27 22 26 15 15 7 2 5 16 4 4 4 5 5 6 4 2 8 6 5 5 2 4 6 6 4 5 3 1 6
36 38 35 33 37 45 49 46 47 46 44 39 48 33 9 6 8 21 20 26 28 10 4 5 3 5 10 2 3 3 4 8 5 9 4 3 3 5 2 2 7 5 8 2 6 6 8
36 34 32 36 45 48 48 44 45 44 42 37 50 22 12 6 17 14 32 27 32 24 6 11 7 2 2 4 3 3 3 4 4 8 8 7 6 3 3 2 6 10 5 6 6 14 14
35 31 38 40 41 40 41 41 44 42 39 41 39 40 25 8 13 20 2 28 42 34 22 17 10 16 14 4 2 3 3 2 3 2 2 2 7 6 7 6 5 20 24 20 20 17 13

GFSGBSN_850_spd_057.txt.gz
Wind_Speed
25 24 23 23 26 30 30 30 27 26 24 21 19 17 16 16 17 16 16 16 15 16 18 19 20 18 15 9 8 7 3 4 1 1 2 4 1 1 2 6 8 3 6 7 12 13 5
28 26 25 24 23 22 27 31 31 29 26 24 21 19 17 17 17 17 17 15 15 16 17 19 18 16 13 6 2 4 4 1 1 1 1 3 3 7 6 5 2 4 15 8 12 8 4
31 30 29 27 25 23 22 23 28 29 28 25 24 21 19 18 18 18 18 16 15 16 17 18 16 15 17 16 6 9 8 5 4 3 7 6 6 6 10 6 6 5 6 5 2 5 2
33 33 31 31 29 26 24 22 22 26 27 26 25 23 20 19 19 19 19 17 16 17 17 17 14 14 11 8 11 12 9 7 5 5 8 10 13 9 4 6 4 4 4 3 5 2 3
32 33 34 33 32 30 27 25 22 21 26 27 25 23 22 19 19 19 20 17 17 18 18 15 13 9 11 3 5 12 12 12 7 7 12 10 8 4 2 2 4 2 4 2 3 9 2
36 34 33 32 33 33 31 28 24 22 22 25 25 23 21 20 18 19 19 17 16 16 15 13 13 8 9 3 3 5 13 15 10 6 1 0 2 2 3 4 1 2 4 1 5 1 3
42 39 36 34 32 31 32 31 28 25 22 22 23 21 19 18 18 18 17 12 9 7 8 10 2 7 11 8 7 5 7 14 11 2 3 1 3 4 7 6 3 3 4 7 8 12 9
43 43 41 38 34 32 31 31 30 28 23 21 23 20 19 17 17 15 13 8 4 3 12 18 23 29 27 22 8 10 7 7 7 5 3 4 4 7 4 2 4 2 2 7 9 6 8
41 42 43 43 38 34 33 31 29 28 26 22 22 21 19 17 16 15 12 6 8 12 6 13 17 19 25 16 10 14 9 8 4 5 5 6 5 1 3 3 3 3 4 5 7 6 3
55 44 44 43 40 38 34 33 29 28 27 24 22 22 19 17 14 15 9 1 3 4 2 6 5 8 15 11 6 21 11 9 1 9 6 5 3 5 2 5 4 5 6 4 2 2 3
50 56 39 46 44 40 37 33 31 28 29 24 21 23 21 20 10 9 8 1 5 3 3 4 5 5 18 19 1 10 21 8 8 5 6 6 6 5 5 7 5 6 3 2 2 3 1
50 56 55 41 46 43 40 37 31 29 27 25 22 23 23 24 24 11 8 1 9 4 7 3 9 7 7 7 2 2 12 10 5 5 2 4 2 4 6 4 3 3 4 5 3 2 2
49 53 62 51 43 46 44 41 36 30 27 28 24 24 27 26 26 17 12 8 3 4 5 5 6 6 6 7 3 2 6 6 6 4 3 1 3 2 2 2 3 5 5 3 4 4 5
49 52 55 62 46 46 41 41 39 34 28 27 26 24 29 30 26 14 12 3 8 7 6 5 4 5 8 5 5 6 6 5 4 4 4 5 5 4 1 3 4 2 6 5 4 2 4
54 49 55 57 59 46 46 43 39 37 30 26 25 26 31 34 29 16 8 12 8 7 4 4 4 5 4 5 6 4 8 8 9 8 8 5 4 2 3 2 3 1 2 3 6 3 3
60 55 50 56 57 57 47 42 40 38 32 28 27 24 36 35 31 22 5 14 6 6 4 4 8 6 8 7 7 7 8 5 6 10 7 7 1 3 1 2 5 4 4 3 2 2 3
65 59 54 53 56 61 53 43 40 39 36 30 27 11 20 34 30 16 12 9 7 16 7 3 3 1 7 8 9 6 7 5 7 5 6 5 5 2 2 5 6 2 3 3 4 4 4
67 64 56 52 53 53 59 48 45 39 39 35 30 6 24 37 11 10 14 8 9 22 12 3 3 4 4 8 8 9 10 8 14 12 10 7 6 5 10 2 3 4 7 5 4 4 1
70 69 61 55 54 53 51 55 49 43 44 41 23 18 30 36 11 12 9 16 9 9 6 7 5 1 4 4 5 7 7 7 10 8 9 8 1 2 7 5 3 5 5 4 5 4 6
72 71 63 58 55 53 52 58 57 50 47 43 15 9 14 29 37 18 17 13 17 21 15 3 3 2 1 3 3 4 6 2 4 10 13 13 4 7 6 8 3 3 3 5 5 3 4
72 74 64 57 54 53 59 50 46 54 53 46 18 12 16 12 21 16 16 11 20 10 18 19 5 7 3 3 4 4 3 3 2 7 3 5 6 5 4 3 4 3 4 6 6 5 6
69 74 63 59 54 56 56 55 48 56 56 43 18 10 21 5 26 24 19 19 20 18 6 8 12 7 9 10 7 3 4 4 5 3 4 2 3 3 3 2 2 4 6 4 4 3 6
71 75 63 60 57 59 57 53 54 56 56 22 45 15 15 10 18 19 26 21 19 18 19 21 16 13 9 13 16 21 19 8 6 10 7 5 6 4 5 2 2 6 8 8 6 5 5
74 71 60 58 61 63 53 53 53 55 57 21 47 16 9 9 14 22 21 20 21 22 19 17 30 8 6 20 8 1 3 8 7 5 5 7 5 3 3 3 1 7 3 6 5 1 5
72 68 57 57 61 61 58 53 56 53 54 43 33 26 6 4 11 13 18 21 20 27 21 23 16 26 21 4 2 1 4 4 3 6 3 3 5 3 5 4 4 5 4 7 6 3 2
69 58 55 56 59 57 54 54 56 54 49 44 37 29 14 3 13 18 20 24 15 13 12 19 25 34 11 3 3 7 5 5 5 3 5 5 6 5 3 5 7 8 4 7 5 3 6
56 54 53 55 57 55 52 53 51 49 42 45 35 21 29 6 8 26 16 17 24 15 6 4 15 8 15 3 3 4 4 4 7 10 5 3 3 5 2 2 7 7 6 9 6 7 17
54 49 48 49 48 50 49 49 48 48 43 39 39 20 23 4 3 12 24 17 17 29 6 5 7 4 3 3 4 4 3 5 3 6 8 8 7 4 3 3 6 7 5 8 7 12 22
45 43 43 43 43 47 47 43 42 42 45 39 37 22 11 4 3 3 17 18 18 15 27 13 3 8 11 4 1 3 1 2 3 3 1 2 6 6 8 6 1 5 6 8 24 30 20

GFSGBSN_850_spd_060.txt.gz
Wind_Speed
26 26 25 24 24 24 26 29 30 29 27 25 24 23 20 19 18 18 18 17 17 17 19 20 21 21 18 10 10 8 3 2 1 3 4 5 3 1 1 3 4 2 4 2 6 10 6
27 27 27 27 26 25 23 24 28 30 29 28 26 26 23 20 19 19 19 18 18 18 19 20 21 19 16 6 5 8 6 3 1 2 4 3 2 5 4 3 1 2 5 3 5 4 3
30 28 27 27 28 28 26 24 23 24 28 29 28 26 25 22 21 20 20 19 18 19 19 20 20 19 19 20 8 9 10 7 4 1 2 2 2 8 6 2 5 4 4 4 2 1 2
31 30 30 28 27 27 28 27 25 24 22 25 26 26 25 23 21 21 21 19 19 19 20 20 19 17 13 10 10 14 11 9 6 5 6 6 7 8 2 1 3 3 4 4 1 2 2
34 35 31 31 29 28 26 27 27 25 23 21 24 24 24 23 21 22 21 20 19 20 20 19 16 10 12 5 6 11 13 10 7 6 9 8 5 1 3 4 4 5 1 2 4 6 2
34 35 37 34 32 30 28 26 27 26 24 22 21 23 22 21 19 21 21 19 19 19 17 13 13 7 13 4 4 7 15 11 9 7 3 3 2 3 3 4 2 2 2 2 4 4 3
40 38 32 38 36 33 30 27 27 26 25 23 21 22 21 18 17 19 20 14 10 7 9 11 3 7 7 6 7 6 10 11 10 4 2 1 4 3 7 5 8 5 4 2 4 6 3
42 46 42 35 36 36 33 29 27 26 24 23 21 20 18 16 14 17 15 12 6 4 11 18 23 31 28 25 8 9 9 9 6 5 3 4 3 4 3 2 4 2 2 4 6 2 5
38 36 51 44 39 37 35 33 28 27 25 22 22 18 17 14 15 16 16 12 10 10 6 14 19 19 27 19 12 14 14 9 5 5 5 5 5 4 5 4 3 3 4 3 5 3 2
44 39 39 51 47 41 37 35 31 28 25 23 23 17 17 11 15 18 16 6 8 6 3 7 6 8 16 12 6 18 18 10 2 9 7 4 3 4 4 5 6 5 5 3 4 0 1
49 46 40 41 50 47 40 37 33 30 27 24 23 17 19 18 9 6 5 3 3 3 3 3 4 6 12 19 9 15 18 9 8 6 6 6 4 4 4 6 5 8 4 5 3 1 3
54 51 45 41 47 52 46 40 34 31 28 25 22 19 20 24 21 17 10 5 7 2 7 3 8 7 7 5 4 7 13 8 5 5 1 4 2 5 6 3 5 0 3 4 4 3 1
54 53 50 45 40 44 51 39 38 33 30 26 22 23 23 25 22 22 18 6 3 5 3 4 5 6 5 6 3 5 7 7 6 5 3 2 3 2 3 1 1 3 5 3 4 3 5
56 55 52 49 45 44 49 47 40 34 32 27 25 25 26 31 21 14 9 3 10 5 6 4 2 5 8 6 5 5 7 7 3 5 4 6 4 6 3 4 4 1 5 4 2 2 4
57 56 54 52 47 43 47 53 41 37 33 30 25 26 29 32 25 22 10 10 6 7 4 3 3 5 5 5 6 5 7 9 9 8 7 5 5 2 2 2 3 2 2 3 6 2 2
59 57 57 55 51 46 46 49 47 38 32 34 27 26 37 33 31 24 5 17 7 4 3 3 7 5 9 7 6 8 8 5 6 10 5 8 0 1 2 3 1 1 6 3 3 1 4
61 59 58 57 54 49 43 48 48 42 35 36 27 13 18 34 33 17 12 12 12 18 6 3 2 3 7 8 8 6 10 3 8 6 5 5 5 3 1 5 7 3 1 4 4 4 4
60 59 58 59 58 52 47 46 50 42 37 39 28 8 15 38 19 12 14 8 15 17 7 3 3 4 5 7 6 7 10 9 14 14 9 6 5 5 9 1 4 5 8 6 4 4 1
59 60 59 59 61 54 49 46 49 47 44 46 18 17 19 48 13 17 10 11 5 8 6 4 4 4 2 3 5 6 7 6 15 8 9 8 1 1 7 5 3 3 4 4 5 3 7
57 58 59 60 64 60 53 48 51 56 46 48 14 8 14 34 41 18 19 14 21 11 10 2 4 3 2 2 4 5 7 2 12 10 8 11 4 7 9 8 5 4 6 6 6 4 4
43 51 65 61 68 64 57 49 52 57 50 51 18 9 14 12 20 19 21 15 19 17 15 11 4 5 2 2 2 4 2 2 2 6 6 6 7 6 5 4 6 6 5 8 7 6 7
46 45 70 61 71 67 59 51 55 58 58 50 13 9 17 13 29 23 15 23 25 21 8 10 7 6 6 4 4 4 2 1 4 5 7 2 5 4 4 1 0 3 7 8 5 3 5
50 46 42 57 73 69 61 54 55 59 59 33 23 24 18 16 19 18 25 23 21 18 24 9 19 13 6 15 17 10 10 10 6 2 6 8 7 4 4 2 4 5 8 9 7 6 8
55 50 45 63 75 71 62 55 61 64 67 36 28 23 15 6 12 23 23 19 22 21 9 26 22 4 6 23 20 12 4 3 8 3 6 6 6 3 4 2 1 7 1 4 8 5 5
48 45 44 67 78 70 61 55 60 64 62 47 33 22 15 4 11 13 18 23 21 23 17 10 20 26 20 6 2 1 4 5 1 4 3 2 5 3 5 4 4 4 4 7 8 9 7
46 47 45 76 73 64 58 59 60 63 61 61 35 22 7 2 10 21 18 23 17 12 7 15 29 24 4 3 2 4 5 5 5 2 4 4 6 4 3 5 8 8 4 7 4 6 7
42 41 70 73 68 58 56 59 61 61 57 55 49 23 8 2 3 29 16 18 29 13 3 7 21 16 17 3 2 4 5 6 5 9 6 3 3 5 2 3 7 7 3 10 5 8 13
35 67 68 66 56 54 57 57 58 60 55 47 46 42 21 8 9 14 18 23 24 29 6 5 11 5 3 5 4 4 3 6 4 4 6 7 7 3 3 2 6 11 5 9 8 4 21
66 63 61 52 51 56 62 52 57 54 47 42 40 49 13 12 5 6 17 24 38 39 28 22 7 8 13 4 2 3 1 1 4 4 2 3 5 6 9 7 3 20 5 16 7 9 21

GFSGBSN_850_spd_063.txt.gz
Wind_Speed
24 24 23 22 21 21 23 24 24 27 27 27 26 25 23 22 21 19 19 19 19 19 20 20 20 21 20 11 11 10 5 1 4 6 6 7 5 3 2 3 2 3 3 5 4 5 4
26 26 25 24 23 23 23 22 23 24 24 28 27 26 26 23 23 21 20 19 19 20 21 20 20 20 18 7 5 7 8 5 5 6 7 5 1 1 1 2 1 3 1 4 6 3 2
24 27 26 25 25 24 23 22 24 23 23 22 25 27 26 24 22 22 21 19 19 20 21 20 21 20 21 20 8 10 13 8 4 4 4 2 2 3 3 1 3 1 1 3 2 3 1
31 28 27 29 26 26 24 23 23 24 23 22 22 21 24 24 22 23 22 19 19 21 22 21 20 18 13 14 11 14 14 11 7 5 3 5 4 5 2 1 3 2 2 2 1 3 2
30 32 31 28 30 28 26 24 23 23 24 22 22 20 21 21 22 21 22 19 19 22 22 20 16 10 12 8 8 12 16 12 8 5 4 7 4 2 2 3 2 4 1 1 3 5 3
29 26 37 33 28 30 30 26 25 22 22 24 22 20 18 19 19 19 19 17 17 21 20 14 14 6 13 4 5 9 13 13 9 5 3 4 3 1 2 2 2 4 2 3 5 2 5
33 30 28 31 34 30 29 31 27 23 21 22 21 20 18 16 16 14 17 12 9 7 9 12 4 6 3 5 6 8 12 14 10 5 3 1 2 4 7 5 2 2 3 3 3 5 4
37 35 33 30 36 38 34 29 29 26 22 21 19 18 17 13 10 14 13 9 6 5 11 20 25 31 28 21 7 8 11 11 8 5 4 1 5 4 2 4 2 2 4 4 2 3 3
41 41 37 34 33 35 40 36 29 27 24 20 19 16 13 11 10 13 14 13 11 8 6 13 23 20 26 21 14 14 15 10 4 5 6 5 2 5 5 3 4 4 4 3 5 3 2
42 42 43 39 36 34 31 42 36 28 27 22 19 17 11 10 10 13 15 8 8 8 3 6 6 8 17 13 7 25 18 12 2 9 8 4 2 4 3 4 6 5 6 6 3 1 1
46 46 45 44 39 37 33 34 41 35 28 25 20 18 14 16 6 6 3 4 3 7 4 3 4 5 11 17 12 18 22 9 8 6 6 5 4 4 3 5 6 5 2 2 1 3 2
47 46 44 46 46 40 37 33 34 37 33 26 23 20 17 19 23 14 11 4 6 2 9 2 7 7 7 7 4 11 11 7 7 5 0 3 1 3 6 3 4 5 4 5 3 1 1
50 51 51 48 47 45 40 36 37 38 34 27 25 23 22 21 19 19 16 7 3 7 5 4 5 6 4 6 5 5 11 7 8 6 5 0 2 2 3 3 2 3 4 1 1 1 2
50 49 48 50 51 47 42 38 34 34 39 31 27 25 25 27 17 17 12 3 12 6 6 4 2 5 7 5 4 4 10 12 3 5 4 6 3 7 4 4 5 5 4 4 3 2 1
53 51 49 49 48 47 45 41 38 32 39 32 27 29 28 32 30 19 10 8 7 6 4 4 2 4 4 4 5 4 7 14 10 8 8 6 5 1 4 4 3 4 3 2 6 2 1
58 56 54 51 49 48 45 43 39 34 40 33 29 32 32 33 30 23 8 21 7 6 0 1 5 5 10 7 6 8 9 7 8 8 6 7 2 2 1 2 4 2 8 3 1 3 3
55 55 55 55 52 50 48 45 41 36 38 35 27 19 20 33 30 18 13 19 15 8 2 0 2 3 5 7 7 6 9 1 13 9 5 5 3 2 2 4 8 3 2 3 3 2 3
55 55 55 55 55 52 51 49 44 39 39 36 27 10 20 33 19 16 18 18 17 24 3 1 2 3 4 6 5 7 10 5 17 17 10 7 4 4 6 1 2 2 6 6 3 4 1
53 50 54 55 55 54 54 56 47 44 43 43 16 22 27 45 14 15 17 22 17 14 11 6 3 4 2 3 4 5 6 5 18 9 12 8 1 3 1 1 2 2 4 4 5 3 7
48 48 48 60 57 56 55 63 50 48 47 48 17 7 14 32 37 23 21 19 21 24 10 5 3 1 2 3 4 5 6 3 16 9 15 15 4 6 9 8 5 4 6 7 6 4 5
48 48 49 52 59 56 56 67 55 52 52 51 21 6 13 12 22 20 21 20 27 16 23 17 3 10 2 3 2 3 2 2 3 6 5 5 7 6 5 5 5 6 5 12 11 10 8
48 47 47 44 61 57 57 71 58 55 56 42 16 6 20 8 36 23 18 22 27 23 12 18 15 9 15 4 4 4 6 1 1 0 4 2 4 5 4 3 6 5 6 8 9 5 9
49 47 46 44 51 58 57 75 62 58 64 38 34 33 22 24 20 18 21 23 17 20 21 7 15 2 5 20 5 6 3 6 4 2 4 5 6 4 5 1 5 4 7 9 5 6 6
53 48 47 45 46 53 60 78 64 62 69 42 35 20 17 12 14 19 21 16 26 23 11 23 8 15 7 14 14 8 4 3 5 5 6 5 6 1 3 1 5 4 2 4 10 7 9
56 52 49 50 46 46 68 80 65 64 68 42 39 34 15 9 12 19 21 25 18 24 19 13 19 7 10 6 3 4 4 3 1 1 4 3 5 3 4 5 3 3 5 7 7 13 8
55 52 49 51 49 49 74 79 65 63 64 52 34 39 15 8 13 17 23 27 12 14 6 14 11 11 2 2 2 8 6 3 4 2 3 4 4 3 3 5 9 8 5 9 4 10 8
48 49 48 51 49 51 77 72 65 61 64 58 39 33 13 5 8 25 16 21 26 11 5 7 20 5 7 1 1 4 8 1 4 7 5 3 2 5 3 4 5 6 5 13 6 9 8
42 46 46 45 43 69 75 67 62 60 62 55 38 32 23 7 10 11 21 26 29 24 8 9 7 8 2 4 3 3 3 8 5 2 4 6 8 4 3 2 8 11 7 9 9 7 9
35 39 44 45 41 73 69 61 59 59 61 54 36 38 42 4 4 6 17 27 43 41 22 26 12 9 13 4 4 3 2 1 7 13 2 4 5 5 8 6 2 25 7 21 8 7 9